GFSCGP_925_rhum_000.txt.gz
RH
16 13 17 19 19 17 16 16 16 15 20 26 23 16 16 16 16 17 16 15 17 21 23 24 27 28 36 48 46 42 40 46 40 34 32 29 31 31 33 36 44 47 46 46
14 20 19 20 20 18 18 18 18 20 22 26 20 18 16 18 20 20 18 17 18 19 19 24 28 32 34 39 40 39 35 36 35 32 36 39 41 37 41 37 40 39 40 38
17 20 19 20 23 24 22 21 26 26 23 24 22 21 19 18 18 18 19 19 19 19 20 23 28 32 36 38 37 35 37 39 42 38 35 34 35 33 34 36 34 37 40 40
20 22 25 23 28 28 24 25 31 29 28 22 24 22 25 19 20 20 20 22 22 21 21 22 24 31 34 42 41 39 40 39 41 42 40 43 38 38 41 41 39 41 37 38
26 26 27 28 30 30 32 34 32 31 28 29 26 21 27 21 23 23 23 24 24 25 27 30 32 34 38 41 44 43 42 42 43 41 44 41 43 44 42 42 39 33 30 36
27 25 27 29 28 29 31 32 33 33 33 38 33 29 30 28 28 25 26 29 31 30 28 33 35 35 38 44 47 45 40 42 46 46 45 51 54 51 44 38 36 32 35 36
27 30 28 31 28 29 26 29 35 46 44 40 34 31 36 30 28 29 32 32 34 35 34 32 33 34 39 43 45 42 42 40 45 48 46 47 45 43 41 40 39 42 39 40
33 37 35 34 36 36 35 36 47 49 46 37 31 31 33 29 28 30 31 33 32 34 34 33 33 35 40 44 47 46 44 41 42 44 40 37 45 48 45 45 48 47 48 51
39 37 33 35 32 33 35 43 39 54 78 63 33 34 32 29 29 29 31 33 34 33 32 32 33 36 41 46 47 52 49 41 42 45 47 49 53 52 52 51 50 49 55 56
42 43 36 33 33 34 34 36 42 39 69 42 24 27 26 37 33 32 32 34 34 32 32 32 32 37 43 44 50 51 52 50 52 52 50 53 54 53 54 53 54 58 61 66
35 39 36 38 39 39 40 42 41 37 47 49 51 29 31 31 30 32 32 30 33 35 33 33 35 37 40 48 49 51 55 57 55 52 53 52 55 54 54 57 60 64 65 61
43 46 36 34 40 40 38 40 38 43 47 52 60 46 29 29 29 32 32 31 33 36 34 34 37 40 45 49 51 53 56 52 56 54 53 55 56 56 56 62 67 72 72 72
42 47 35 37 43 39 43 40 42 48 55 61 72 46 27 29 27 29 35 35 37 36 34 34 38 42 47 48 50 57 63 62 58 55 53 52 61 63 67 72 78 85 91 94
48 46 42 29 30 34 36 34 37 42 66 53 50 40 31 28 31 32 37 40 37 37 38 40 47 47 48 54 59 66 63 62 60 59 56 58 65 79 87 94 86 78 74 72
48 49 49 41 38 37 42 42 38 42 46 60 48 39 34 34 36 38 41 41 41 43 48 48 47 49 49 50 54 59 62 59 65 62 57 61 60 59 56 54 53 52 50 43
51 56 65 59 48 41 49 41 39 43 44 46 45 45 35 36 39 44 44 45 48 53 52 53 56 51 43 45 54 63 52 56 69 60 59 54 53 50 46 46 43 38 37 39
61 69 74 83 61 62 78 51 39 38 41 41 50 38 40 44 48 50 50 51 60 65 61 62 56 41 44 50 64 51 49 59 64 56 51 53 53 44 42 38 35 37 40 42
94 81 90 96 91 83 45 34 36 41 39 33 36 42 48 48 47 43 55 66 80 74 58 47 42 39 44 53 52 50 51 55 55 52 50 54 48 44 38 37 38 40 41 43
63 84 99 96 70 51 43 40 42 44 45 40 48 52 53 49 45 50 72 82 69 65 53 45 41 41 45 53 51 52 52 51 50 51 54 58 48 46 38 38 40 42 45 47
70 78 87 88 94 83 46 39 40 43 56 52 66 79 79 58 82 90 66 75 66 48 43 39 35 40 50 55 52 56 54 51 50 54 64 52 50 45 40 42 44 48 47 49
94 94 92 86 92 67 42 45 44 82 78 69 80 82 83 84 90 79 73 55 39 38 38 37 33 34 43 49 54 58 50 47 46 50 53 53 50 42 43 44 46 49 51 59
63 83 94 92 98 95 43 46 82 63 73 83 80 72 70 72 71 55 40 35 33 36 36 33 34 36 41 48 54 54 42 40 48 51 53 54 48 45 46 47 48 52 55 65
63 55 55 64 64 42 42 52 53 68 78 73 75 64 68 63 46 37 34 32 33 36 34 34 39 44 43 46 55 49 40 48 57 51 51 50 49 50 50 51 56 57 58 81
50 48 69 70 56 50 55 51 60 71 78 76 74 57 50 46 37 35 32 32 36 34 35 41 42 42 46 50 63 57 56 59 54 49 48 49 50 54 56 58 58 55 66 80
52 52 61 73 65 60 52 66 78 76 79 79 56 48 40 34 34 32 32 32 32 36 40 42 43 44 43 46 69 67 66 55 46 46 49 55 60 64 64 59 57 65 73 76
51 53 84 96 69 70 71 72 68 82 70 50 44 38 33 33 34 33 30 32 35 38 45 44 46 50 50 51 57 66 61 64 62 59 58 64 75 72 72 59 60 68 76 72

GFSCGP_925_rhum_003.txt.gz
RH
11 12 15 15 14 12 11 11 11 11 13 14 15 11 13 13 12 14 12 12 12 11 16 25 24 26 29 34 30 29 34 40 34 32 30 27 28 29 32 34 38 42 41 41
11 17 15 15 15 15 14 14 14 14 14 15 14 13 14 14 16 14 14 15 17 19 20 22 25 27 27 34 33 37 37 32 30 29 33 37 39 35 36 35 36 35 40 41
15 17 16 17 17 18 17 17 21 20 16 14 15 16 16 15 15 15 16 16 16 18 20 23 27 32 35 36 34 32 33 36 36 33 32 33 32 32 32 34 36 37 42 39
17 18 19 19 22 21 21 20 22 21 20 19 15 18 18 16 18 18 19 19 18 18 18 19 24 28 36 37 36 35 35 35 37 40 36 39 38 38 40 39 39 39 36 32
22 21 22 23 24 23 26 25 24 23 21 19 17 16 24 16 19 20 22 22 22 22 23 24 26 30 34 39 41 38 37 37 39 39 42 43 45 46 48 45 40 38 32 34
21 19 22 24 22 23 23 25 24 25 23 30 23 21 23 21 23 23 24 26 25 24 26 27 29 31 36 40 42 40 36 36 42 44 45 48 56 54 43 38 36 34 37 36
22 24 22 23 24 23 20 23 34 39 36 36 24 21 29 24 23 23 26 26 28 29 27 26 27 29 35 37 40 38 36 34 36 41 45 41 39 39 39 38 39 41 38 38
25 36 26 24 28 29 25 28 44 41 38 30 23 22 27 23 24 24 24 26 27 30 31 30 30 32 33 36 38 43 41 39 35 39 40 40 41 42 42 43 45 44 43 44
29 31 25 26 25 25 28 33 27 44 55 53 22 21 24 24 25 25 26 27 28 28 29 29 29 32 36 37 38 43 44 42 42 44 43 43 43 44 46 47 47 45 47 45
27 35 25 25 25 26 29 26 38 33 59 36 19 17 28 31 26 26 24 26 27 28 27 27 28 30 34 35 37 40 45 44 44 44 42 43 46 48 45 45 46 47 48 49
24 27 29 26 30 30 30 33 32 25 35 44 40 27 25 25 26 27 27 25 25 25 27 27 30 33 34 35 39 42 45 49 45 44 45 48 47 45 44 44 47 57 65 63
33 32 34 24 30 30 29 31 29 40 37 39 49 44 23 24 23 25 27 26 27 28 29 28 30 33 36 40 41 44 49 53 51 50 46 43 43 46 44 48 58 63 70 75
33 38 35 29 36 31 31 30 29 37 45 52 66 44 25 26 27 22 26 30 29 32 34 34 37 37 39 41 46 52 56 57 58 52 46 42 45 47 52 56 59 63 61 60
44 33 34 36 27 24 29 25 24 30 50 48 44 34 25 24 26 26 27 31 37 38 39 39 40 41 43 49 51 51 52 57 57 51 47 44 48 49 48 49 48 46 44 42
37 43 38 33 26 25 27 29 27 27 29 46 42 34 29 28 31 31 31 33 36 38 42 46 44 43 46 41 41 42 54 56 53 54 50 48 44 44 41 40 41 39 36 34
38 52 54 49 31 28 33 27 25 26 31 30 31 33 29 29 28 33 40 44 44 48 54 53 43 42 41 38 38 39 48 43 46 54 47 45 44 45 41 39 35 31 31 32
50 55 57 69 51 54 77 45 28 28 28 35 43 33 28 34 45 50 52 48 54 59 58 48 43 38 35 32 33 36 38 40 47 46 43 40 44 50 41 39 32 31 32 34
70 63 85 93 88 88 40 26 27 31 31 27 27 30 36 47 44 45 54 58 57 53 53 42 37 32 27 27 30 34 38 38 37 39 40 40 50 51 43 38 33 32 34 36
48 69 89 94 62 46 38 35 36 41 43 30 39 47 50 48 46 47 52 48 53 51 42 33 29 26 25 24 27 32 33 33 35 38 43 50 51 58 46 37 35 35 36 38
57 68 75 88 92 81 48 33 34 36 54 49 52 58 73 57 72 52 47 48 47 35 27 27 28 27 24 23 26 29 31 32 38 37 36 43 47 54 50 39 35 35 36 40
91 91 92 79 93 62 35 38 37 66 70 58 62 70 64 65 59 54 49 36 29 26 25 25 24 23 24 28 30 30 29 32 38 36 39 47 51 49 41 33 35 36 39 48
67 89 95 84 94 84 36 40 74 53 48 62 70 69 62 62 50 42 33 28 26 25 24 22 22 24 27 27 29 32 28 32 42 45 47 45 44 40 33 36 35 39 42 54
52 49 56 58 53 34 42 67 54 50 60 68 71 72 68 50 39 34 29 26 26 24 21 21 23 26 27 30 31 31 45 55 58 65 59 46 39 34 34 38 38 40 44 59
40 31 56 61 43 39 47 48 51 61 64 67 65 59 42 40 34 30 28 27 24 22 22 23 26 28 31 33 35 37 60 69 57 53 44 40 38 47 45 42 40 43 56 68
45 41 50 57 43 42 46 61 59 56 60 64 55 43 39 33 31 30 28 24 24 26 26 29 30 30 33 37 41 44 55 55 54 57 45 47 48 49 49 46 47 52 66 73
42 44 65 71 50 63 66 65 55 56 57 56 42 38 34 32 30 27 26 26 27 28 30 29 29 33 39 45 50 57 62 62 64 59 52 56 65 60 60 52 54 65 73 73

GFSCGP_925_rhum_009.txt.gz
RH
18 26 26 17 15 14 14 15 21 18 13 13 13 18 20 22 23 22 26 38 38 38 40 48 50 51 53 72 72 67 57 49 44 49 37 35 35 37 42 37 39 38 37 38
19 25 15 15 17 18 15 24 28 18 14 13 14 18 22 23 25 26 30 34 37 40 44 46 44 41 52 51 48 45 42 37 36 37 37 37 38 38 35 35 37 46 48 47
27 18 14 15 25 25 27 29 27 24 20 17 17 23 24 23 24 24 27 30 35 40 46 48 48 41 38 39 38 36 35 35 36 37 34 32 33 35 38 43 45 44 45 41
20 15 19 22 26 25 34 28 26 24 27 30 19 37 27 28 31 30 32 36 37 40 44 44 48 43 41 40 37 36 36 35 34 36 37 41 47 53 52 45 43 53 42 40
24 28 30 29 25 23 30 24 26 25 31 29 27 38 28 28 36 34 35 36 40 43 45 49 47 43 42 40 39 38 38 38 38 40 42 46 47 40 43 52 48 45 44 40
22 22 24 25 22 20 22 29 32 30 36 59 36 41 48 43 36 36 36 38 39 41 42 44 42 41 42 40 39 38 40 41 40 41 46 43 43 49 48 48 48 47 44 46
27 28 23 22 29 25 29 42 72 67 74 70 41 42 48 38 34 36 42 44 45 45 44 44 43 44 41 39 40 42 42 42 42 43 45 46 46 48 50 50 48 46 49 51
42 46 28 25 28 29 34 38 74 64 81 67 27 48 46 33 33 33 35 39 41 41 42 40 34 35 38 36 38 40 41 44 47 50 47 47 50 51 52 50 46 52 59 62
44 38 26 23 22 27 35 43 25 60 61 80 47 40 33 31 32 32 31 32 42 44 41 35 38 41 40 42 42 44 46 50 50 49 49 51 50 51 56 50 57 60 60 59
28 40 23 21 23 26 29 24 55 64 63 52 42 50 59 42 41 32 32 35 36 38 42 46 44 46 44 46 51 51 53 55 55 54 53 49 47 47 50 54 56 57 54 49
38 43 32 26 34 36 38 42 37 39 62 74 80 53 39 44 42 42 40 46 49 49 51 53 47 44 44 47 49 50 49 50 56 55 52 52 48 45 46 48 52 52 51 49
32 46 58 37 26 24 26 34 41 75 60 77 81 60 44 45 41 42 41 45 48 48 51 51 48 46 44 44 41 41 42 48 54 53 54 53 50 46 45 47 49 48 48 47
44 45 73 55 44 33 27 28 44 61 69 55 80 66 38 45 46 40 41 48 49 52 55 56 53 50 45 41 39 41 37 41 42 50 56 56 54 51 48 48 44 44 42 40
50 39 50 68 38 30 29 29 29 57 86 72 72 49 39 58 55 54 55 54 56 58 56 56 54 51 42 39 37 34 29 28 33 46 52 52 57 62 49 51 56 45 42 35
47 61 51 45 36 31 30 32 31 32 40 61 51 48 53 59 54 56 54 55 57 57 53 52 53 47 39 34 27 25 25 25 25 36 42 44 51 59 64 74 63 74 49 36
53 81 54 51 47 47 46 44 41 36 34 35 36 44 51 52 50 54 59 61 58 54 52 52 48 42 33 28 27 27 27 28 28 29 31 42 60 67 73 76 88 60 41 40
67 74 84 82 70 80 73 51 40 35 35 33 47 45 55 61 58 69 69 59 56 56 54 52 46 36 30 27 28 27 27 27 28 30 46 57 70 75 84 85 73 57 53 45
70 84 96 90 81 66 55 36 34 42 41 41 52 60 61 60 65 64 58 57 55 50 49 46 38 26 25 26 26 26 26 27 28 38 52 58 60 70 80 90 69 59 50 42
65 89 95 97 92 60 49 40 46 50 53 61 69 67 63 55 54 62 52 48 46 42 34 28 23 23 24 26 25 26 27 28 32 52 54 59 64 70 77 93 81 54 41 50
77 80 87 97 88 81 60 44 41 42 80 65 69 73 70 62 89 79 65 52 34 28 27 24 22 22 24 25 26 26 28 30 47 59 60 63 68 66 65 66 59 46 44 61
94 91 94 91 89 83 61 42 40 74 71 68 70 69 70 79 83 74 68 37 28 28 25 22 23 25 26 26 26 28 30 37 48 54 58 61 59 59 54 49 43 40 54 63
86 96 94 85 85 91 49 44 58 66 67 73 66 71 71 71 69 71 42 35 30 30 24 24 27 29 28 28 31 34 41 46 49 55 58 56 56 51 48 45 43 54 57 60
73 80 90 81 82 58 49 52 57 69 73 74 71 65 62 67 66 48 39 36 32 26 27 29 30 30 30 34 36 44 51 52 54 59 58 58 54 54 52 53 50 55 60 66
49 55 79 71 58 50 56 64 65 69 73 66 63 60 64 69 44 39 41 35 32 30 32 30 31 33 37 40 44 51 54 56 56 62 64 63 65 64 63 59 56 59 64 68
63 54 55 69 53 53 73 74 74 67 63 66 60 61 56 39 41 36 39 35 33 33 33 36 40 44 45 51 59 62 62 58 59 67 70 72 72 68 68 65 64 71 72 75
62 60 78 81 63 69 82 72 66 69 66 66 62 45 38 35 37 34 35 35 37 39 41 44 48 51 52 60 65 64 68 62 66 70 72 71 76 76 77 75 78 79 70 74

GFSCGP_925_rhum_012.txt.gz
RH
22 25 23 17 17 16 17 22 23 18 14 14 22 30 30 30 43 46 52 59 55 54 54 66 77 86 82 79 75 70 75 64 59 45 47 39 43 39 39 42 43 45 43 44
25 23 16 18 24 26 26 26 27 22 19 15 25 29 30 33 37 44 51 56 56 52 52 56 64 65 64 66 67 54 44 44 42 44 41 40 40 41 40 44 48 46 43 40
28 18 17 25 28 30 35 32 27 24 22 20 26 29 34 34 36 38 43 51 55 57 56 55 58 51 46 43 39 36 37 37 37 36 35 37 39 41 45 48 46 47 43 40
21 27 26 28 28 28 38 28 26 26 29 28 21 43 32 40 42 43 49 56 55 55 56 51 53 49 41 38 37 36 35 36 36 37 38 40 46 50 48 50 51 46 43 44
28 30 31 30 26 24 31 25 26 26 33 34 31 44 36 38 44 48 50 54 58 56 54 56 52 43 41 40 38 38 38 40 40 40 42 46 46 42 51 52 48 47 48 48
26 23 24 25 25 23 22 29 40 38 44 59 41 47 48 46 42 44 46 49 53 58 59 54 48 44 41 39 39 39 43 43 42 47 50 47 48 52 50 49 48 48 52 54
31 30 26 26 31 30 34 49 69 68 74 67 42 54 52 41 39 47 52 52 50 53 59 56 49 45 44 45 45 47 48 52 50 50 49 50 51 51 51 52 52 58 60 57
45 48 30 25 27 29 33 43 72 62 70 61 42 58 49 41 43 43 41 47 47 49 52 54 52 48 50 51 50 51 50 50 49 49 50 52 51 52 55 57 57 62 61 58
46 39 27 22 23 29 34 43 36 62 67 76 57 44 35 36 38 36 39 41 46 51 55 56 55 54 51 50 52 52 52 53 53 54 53 48 48 50 51 52 55 57 57 52
32 39 26 22 28 30 27 28 54 66 58 53 50 53 57 45 44 43 55 54 56 57 56 57 54 54 56 53 46 43 45 52 53 51 47 48 49 48 48 49 50 54 54 50
39 41 37 36 35 37 40 41 44 49 66 72 78 61 47 51 49 59 58 58 59 60 59 61 54 49 45 42 41 42 44 45 50 47 48 52 54 52 49 48 51 52 52 50
38 51 59 37 28 26 28 37 47 69 54 82 81 59 42 50 51 54 54 54 54 56 60 57 54 50 46 42 39 38 35 31 39 44 51 54 57 55 49 51 54 56 58 49
40 49 72 60 50 39 36 32 52 62 68 49 72 59 47 49 51 50 58 58 62 64 61 59 55 50 44 42 35 26 26 28 28 28 33 43 41 40 60 61 58 64 63 75
50 54 52 68 48 38 30 30 50 55 80 69 69 46 61 64 65 63 66 68 67 62 58 57 54 48 44 34 27 28 29 27 26 26 30 43 54 64 73 63 65 68 81 69
51 60 49 42 44 36 34 35 37 41 52 61 51 57 63 67 68 65 66 64 60 56 55 54 54 49 41 30 31 28 26 26 26 28 34 47 50 54 65 70 77 78 72 72
64 73 51 49 57 62 44 46 49 45 37 40 41 68 58 58 63 70 66 62 59 56 53 52 49 46 35 33 28 26 26 26 27 30 40 48 53 64 65 81 82 80 83 52
67 76 72 70 77 71 68 51 44 37 39 38 48 60 65 68 73 74 67 60 58 53 51 52 49 33 32 28 26 26 26 27 29 41 52 49 55 61 64 77 81 86 79 75
75 90 93 77 68 54 48 43 39 46 52 66 68 68 64 70 74 68 59 57 57 54 49 44 30 28 27 26 25 26 27 28 33 48 48 54 59 64 68 76 79 84 81 69
67 86 98 72 86 50 43 45 46 44 56 67 72 72 65 72 67 63 55 51 49 40 34 30 26 24 26 26 27 27 28 30 40 48 56 57 61 63 63 63 67 69 69 57
79 78 78 99 63 54 45 47 46 45 78 73 73 76 72 68 89 79 67 62 36 30 29 26 24 26 28 27 28 32 35 37 47 54 55 58 62 64 64 64 61 47 49 65
96 94 89 99 90 78 55 48 44 71 61 79 77 80 79 81 77 72 70 46 32 31 25 26 28 30 29 32 35 36 40 45 50 55 56 59 58 56 53 48 50 51 66 63
84 93 98 96 92 79 56 52 59 62 75 79 77 78 80 78 75 70 62 35 34 29 30 31 31 32 33 38 40 43 48 51 53 54 56 60 57 55 55 52 53 59 61 65
62 68 81 76 77 55 55 52 52 74 78 79 79 75 74 75 72 63 42 40 34 33 32 32 34 38 42 44 48 53 56 59 58 58 62 64 64 65 64 58 58 65 67 69
58 65 85 75 58 62 58 60 70 74 77 78 74 72 71 71 62 47 44 40 36 34 36 39 42 47 50 51 59 62 62 61 66 62 67 68 73 70 70 68 64 69 72 75
63 64 63 76 61 69 74 72 76 74 73 71 65 63 66 55 44 44 42 40 39 41 44 45 50 55 56 62 66 68 73 68 67 70 72 67 70 76 75 71 74 79 74 77
68 60 79 72 57 58 73 82 75 77 76 70 66 51 41 38 43 38 43 43 45 48 45 49 57 58 67 70 60 72 79 77 91 95 93 78 72 77 83 83 89 81 73 80

GFSCGP_925_rhum_015.txt.gz
RH
23 25 24 20 19 17 17 23 22 19 16 29 36 42 47 57 69 74 72 71 76 77 81 87 92 87 81 77 77 74 74 76 64 54 44 46 48 46 45 45 45 48 43 40
25 24 19 28 28 27 24 25 26 23 22 31 38 44 47 48 60 66 64 68 71 76 72 73 80 79 77 72 63 59 65 53 47 50 53 48 45 45 53 52 48 45 43 40
27 20 22 26 31 32 35 30 26 25 25 29 34 42 45 43 54 60 65 62 62 71 74 71 74 69 66 44 39 40 40 40 39 40 38 38 41 45 51 51 47 44 43 42
31 31 28 29 28 31 35 28 27 26 30 43 28 55 43 47 60 64 67 72 71 68 64 61 58 47 39 37 36 35 36 37 38 39 38 38 42 47 54 55 48 48 48 50
30 29 31 29 27 26 30 27 27 27 36 36 34 54 49 46 59 63 66 66 62 59 58 60 52 44 40 39 39 39 40 41 42 43 45 49 54 54 59 52 50 56 54 55
29 25 25 26 26 25 24 35 44 51 48 62 46 51 53 54 52 55 54 60 59 61 62 58 51 49 50 47 47 49 47 46 46 49 51 51 54 53 51 50 52 55 58 60
32 31 29 27 30 29 36 46 67 68 73 72 48 55 54 43 47 52 57 57 61 64 67 65 57 55 55 54 54 50 49 53 51 50 49 50 49 49 49 50 53 54 56 63
47 43 30 25 28 31 36 43 74 55 70 60 47 60 55 47 49 48 50 55 60 65 59 60 61 60 57 53 51 50 50 51 52 53 50 44 44 46 48 50 50 53 56 59
44 39 28 24 24 31 34 46 41 70 71 78 63 46 40 40 52 51 53 55 60 68 67 66 64 59 57 54 51 49 51 52 48 44 46 46 47 47 47 48 50 53 60 61
38 38 28 25 29 30 31 35 53 67 55 54 56 58 64 51 49 48 61 66 68 65 67 67 65 59 48 42 41 44 46 44 46 48 49 53 53 54 54 53 51 54 59 59
39 37 37 32 36 38 40 41 50 57 69 70 77 68 53 51 55 64 70 68 68 69 66 65 60 49 45 43 44 42 39 40 46 45 45 50 55 49 42 54 59 66 66 63
41 53 60 38 35 34 32 38 45 67 57 84 80 60 46 56 61 61 62 62 66 64 65 59 55 50 47 43 42 31 32 28 27 26 26 26 28 34 39 65 64 61 57 59
39 52 71 58 48 37 35 39 58 60 67 63 74 56 49 52 59 55 66 69 70 68 63 60 55 50 48 42 33 30 28 27 26 25 26 26 25 30 39 43 48 53 57 65
49 58 51 62 48 42 33 38 51 51 73 64 65 44 64 67 67 68 72 73 70 66 60 57 55 51 46 37 31 30 28 26 26 25 24 27 36 45 47 47 52 64 67 76
52 56 49 51 53 39 34 34 51 54 53 58 51 59 50 68 73 73 73 72 65 62 56 54 54 50 44 34 32 28 26 25 25 26 29 37 48 56 54 50 61 82 79 88
66 70 45 57 63 64 44 40 45 47 43 57 49 57 62 68 71 75 72 66 64 55 48 46 48 46 38 33 28 26 25 25 27 30 34 42 47 51 55 63 71 78 88 91
67 73 59 51 76 61 47 52 53 44 42 43 58 56 70 74 75 76 72 66 62 55 49 47 49 39 32 29 27 26 26 26 29 31 38 50 55 56 59 61 76 80 86 91
78 89 85 74 69 46 36 46 44 44 48 62 68 72 68 73 73 71 65 64 62 58 54 49 38 30 29 28 27 27 27 30 32 36 54 55 55 57 58 63 69 76 72 84
68 86 97 72 75 46 32 48 53 52 52 68 72 71 68 76 67 66 64 58 58 57 43 36 28 26 28 27 29 31 34 35 36 48 53 55 57 64 68 65 63 72 63 66
77 74 72 97 58 46 36 50 46 44 71 73 73 78 82 76 91 83 67 59 58 38 32 27 26 28 30 32 35 37 38 40 43 49 54 55 62 64 58 57 52 49 56 67
96 96 81 99 78 68 49 49 44 60 51 79 76 76 81 80 78 66 75 72 40 31 28 29 31 32 34 38 41 42 44 47 50 52 55 58 61 58 56 56 54 55 68 66
93 97 98 96 92 62 53 51 61 59 62 75 80 78 77 72 78 79 77 43 33 33 33 32 33 35 40 42 45 50 53 57 60 62 61 61 62 62 62 57 56 67 64 65
71 64 77 72 70 52 56 54 54 66 74 81 82 80 77 82 80 76 52 42 37 34 34 36 39 43 46 49 53 61 64 66 68 68 69 67 69 69 68 64 64 67 69 70
67 64 80 68 50 61 58 54 57 75 74 78 77 78 78 77 75 52 46 45 39 38 41 42 45 51 54 53 65 69 58 74 73 66 71 75 75 69 72 74 68 70 72 75
68 70 66 80 67 70 70 70 69 78 80 78 73 70 70 71 53 48 48 44 42 43 45 44 52 59 55 64 70 62 66 84 76 76 85 88 98 78 74 74 73 83 83 77
72 63 79 66 58 64 59 70 78 83 80 73 70 61 51 43 46 42 48 44 46 49 47 51 56 58 62 74 73 73 74 88 89 82 86 99 98 94 82 82 88 90 81 84

GFSCGP_925_rhum_018.txt.gz
RH
24 26 24 20 17 15 19 20 21 20 21 44 57 64 66 80 81 82 89 91 95 94 87 99 98 96 92 90 85 83 88 84 80 54 49 49 49 52 48 45 45 47 45 43
25 25 22 27 27 27 26 28 27 26 30 48 54 59 65 66 75 76 86 92 92 88 86 89 90 82 81 81 79 80 81 54 49 48 56 56 49 48 52 50 47 46 44 43
27 24 24 27 32 32 35 29 28 30 35 40 42 50 59 58 70 68 71 73 80 85 89 88 88 69 55 59 68 68 58 49 51 47 41 42 45 52 58 53 48 48 47 47
33 29 27 29 31 32 31 30 28 30 38 45 36 65 53 60 73 72 72 75 80 81 72 67 61 51 48 49 47 44 44 43 43 43 44 46 50 58 65 56 52 52 50 48
31 29 30 32 29 28 31 33 32 33 39 38 38 62 55 66 74 75 72 73 72 67 66 62 51 46 44 44 44 45 45 44 44 44 45 50 54 56 55 52 50 49 52 55
32 27 28 28 29 28 28 39 47 54 51 61 47 51 59 68 66 69 66 69 66 61 59 60 53 52 50 48 46 45 44 48 51 51 50 49 46 46 46 48 50 48 49 51
35 33 30 28 31 30 42 47 69 67 73 72 50 54 50 49 55 63 66 70 68 64 67 69 63 61 60 53 53 52 50 51 50 51 47 41 39 41 43 45 48 49 50 50
45 38 28 27 29 34 37 45 72 56 78 66 49 60 54 46 50 54 59 64 69 71 68 67 66 67 61 54 52 51 51 52 51 43 43 42 44 47 49 50 51 52 52 55
44 38 29 25 27 32 38 48 44 71 70 79 67 50 48 58 58 58 60 65 72 69 72 75 68 62 56 53 50 49 50 46 46 44 50 56 58 59 60 56 52 60 63 69
40 42 32 27 30 34 32 41 50 68 54 48 61 60 69 60 64 61 67 69 75 74 74 75 69 58 51 49 49 51 47 48 52 50 44 43 48 34 26 31 41 57 63 71
38 39 37 31 38 40 42 43 55 59 68 68 78 69 54 55 57 60 70 72 73 72 74 74 65 55 48 46 46 47 37 35 36 28 26 24 23 24 22 26 29 33 42 56
43 54 58 36 35 39 35 38 44 64 51 84 78 59 43 55 55 66 72 70 70 68 69 65 58 51 46 44 44 30 30 28 26 26 25 23 24 28 34 36 36 40 40 49
42 52 70 51 42 36 36 48 55 58 69 67 76 56 51 64 68 66 72 73 76 72 70 66 57 52 51 47 34 30 30 27 26 25 24 25 29 35 36 38 40 40 58 69
51 57 48 54 40 44 38 47 50 48 71 62 66 41 59 65 68 71 78 79 75 70 65 61 60 53 50 42 32 33 29 27 25 25 27 29 32 38 44 47 48 51 66 77
48 54 50 55 57 43 35 38 56 51 48 54 48 52 44 63 68 70 78 78 74 70 65 60 58 54 49 38 34 31 27 26 25 27 29 30 39 48 52 56 54 59 72 84
63 66 44 55 65 64 49 42 46 55 50 60 57 57 47 57 77 80 78 74 71 66 59 56 52 48 48 38 32 29 26 25 27 29 31 37 50 50 54 54 55 68 79 86
63 72 54 48 72 56 53 49 51 48 49 47 54 42 75 77 78 79 82 73 69 63 54 49 48 46 35 33 30 27 26 28 29 32 33 39 51 55 54 60 68 70 74 79
72 72 76 69 67 50 36 43 45 48 46 50 56 58 72 70 76 76 72 71 70 62 51 51 47 36 32 31 28 28 29 31 34 35 36 49 55 57 59 71 65 57 74 85
67 80 93 70 72 43 26 39 55 54 49 62 63 70 73 78 70 68 70 66 66 60 52 45 36 30 29 29 30 32 35 36 38 41 48 55 56 60 66 62 59 58 73 62
73 70 69 91 55 44 36 41 45 41 68 57 67 76 83 76 90 72 71 67 60 53 40 34 29 29 30 33 36 39 40 42 45 50 54 57 59 61 62 59 56 57 59 65
97 98 76 98 74 63 43 46 44 58 53 73 71 76 85 81 74 64 70 68 59 40 32 28 30 32 34 39 42 42 47 52 57 61 62 62 66 64 62 62 59 59 63 75
92 97 97 94 86 61 49 52 57 58 52 72 77 79 76 72 74 80 77 65 37 36 35 34 34 36 42 45 46 51 60 65 66 66 69 63 72 67 67 68 64 64 74 68
71 66 76 69 69 48 51 57 53 56 55 74 77 77 70 80 81 84 63 44 39 36 36 37 40 43 45 48 55 66 67 55 58 76 68 70 74 73 76 73 68 70 72 70
69 63 76 62 46 60 61 56 58 58 67 65 77 80 80 82 82 64 44 50 49 39 41 43 44 47 53 52 63 70 61 64 74 80 71 77 84 82 90 75 77 73 74 75
71 68 66 76 67 64 64 70 62 63 74 76 78 78 77 78 70 54 58 52 42 43 46 43 49 58 57 59 68 72 72 79 82 93 90 74 87 100 95 75 74 74 81 90
75 64 78 72 51 50 50 47 66 77 80 80 79 79 60 60 57 55 55 46 46 48 45 49 57 60 61 69 75 79 84 91 89 92 93 91 95 99 97 88 81 85 90 84

GFSCGP_925_rhum_024.txt.gz
RH
20 18 18 13 12 11 10 12 11 16 26 26 27 27 31 40 39 41 38 41 43 44 60 71 72 73 72 79 88 96 99 100 93 93 83 72 68 72 63 60 62 61 61 60
18 19 21 20 15 13 13 13 18 23 27 25 27 33 35 36 42 41 41 42 44 56 62 72 70 78 86 88 91 92 89 86 76 66 57 55 59 58 55 58 63 59 58 55
19 23 22 20 18 17 20 18 23 19 27 26 26 32 37 43 44 48 49 44 50 58 63 63 68 77 84 85 84 77 74 72 55 56 63 64 63 58 53 54 54 58 58 54
23 22 21 19 21 19 21 22 21 26 22 20 24 19 36 43 48 49 53 54 68 64 58 58 62 68 73 77 75 60 57 54 61 58 51 50 47 48 55 53 54 52 56 51
26 23 22 22 25 24 26 25 22 22 21 23 24 21 33 45 49 53 57 57 58 51 47 47 50 58 64 73 61 56 55 55 56 58 56 52 51 50 48 47 48 49 48 52
24 22 22 24 26 24 25 26 25 24 24 29 21 25 16 36 34 48 54 54 54 46 40 39 44 47 51 55 56 55 51 53 54 52 51 49 43 37 33 38 38 35 39 42
24 24 22 24 26 28 26 25 29 38 36 31 32 29 16 22 33 40 49 48 48 43 39 40 42 40 45 52 56 53 50 52 52 47 40 39 40 41 36 39 38 42 34 34
23 30 22 24 25 22 25 24 27 28 30 26 34 29 23 27 28 35 38 39 40 40 39 38 38 41 47 52 52 49 49 45 42 38 42 49 43 38 38 38 34 33 36 36
25 26 24 26 25 25 29 28 30 40 54 47 24 26 26 32 31 37 38 37 38 38 39 38 41 45 49 50 52 49 39 38 43 44 44 52 48 36 32 35 38 33 35 37
27 32 27 28 25 28 27 27 34 34 46 33 21 25 19 38 35 38 40 39 36 35 37 39 44 48 48 49 50 44 44 47 44 54 49 40 34 34 35 37 35 36 38 41
24 26 33 30 28 27 31 30 31 28 35 27 24 13 24 27 30 36 38 36 35 36 38 41 44 49 49 48 44 53 52 56 57 44 38 36 32 34 36 36 36 40 46 46
29 31 40 31 30 30 27 26 24 27 31 42 41 20 23 32 30 30 34 35 34 36 38 41 46 48 45 43 47 54 52 53 36 38 34 32 33 33 34 35 40 46 50 50
32 35 41 37 32 30 30 29 26 33 37 36 58 18 24 31 32 31 32 33 36 40 41 43 46 44 42 42 49 43 39 47 38 32 29 29 32 34 35 39 46 51 53 51
34 35 32 36 26 26 34 34 27 24 36 25 29 14 18 23 27 27 32 32 37 43 44 44 43 42 40 43 43 42 48 40 34 30 27 28 34 37 40 45 51 53 54 55
36 36 35 32 33 32 28 29 30 27 24 32 16 20 12 15 18 21 28 34 38 43 44 45 43 41 42 44 41 39 40 41 34 30 29 32 38 41 44 53 56 54 56 58
41 42 42 44 41 37 36 28 26 27 25 27 23 22 16 18 21 27 36 38 42 43 43 43 42 41 39 42 41 41 42 35 32 30 33 36 40 43 46 54 54 51 55 56
45 48 44 41 43 41 61 37 27 25 27 28 30 21 18 26 28 26 31 38 40 41 42 42 41 39 37 38 45 45 36 33 33 33 36 38 43 44 48 48 48 50 54 59
51 45 55 58 62 77 20 25 24 25 23 20 23 18 23 22 30 35 33 32 39 40 41 41 40 38 37 41 41 35 31 31 34 36 38 37 43 48 47 48 50 53 56 57
39 46 71 84 40 26 14 22 28 32 21 20 21 20 20 38 42 35 38 38 38 41 42 42 40 38 38 37 34 30 30 32 36 35 35 41 50 52 47 46 51 56 58 57
44 44 48 66 86 85 25 30 34 33 32 23 29 32 37 43 47 20 36 42 44 45 44 42 39 39 35 32 31 31 33 35 32 38 43 50 51 50 50 50 57 60 60 58
81 82 84 66 83 44 25 25 36 38 29 30 36 36 43 44 28 38 39 45 45 45 44 41 36 32 31 36 38 36 34 30 39 50 53 49 51 53 56 59 62 61 60 62
58 75 90 73 93 77 29 38 44 34 34 36 34 36 44 39 43 46 44 44 44 44 40 35 32 32 41 47 38 29 28 40 53 52 50 54 57 60 60 62 63 63 64 67
52 45 46 44 39 32 32 32 32 40 40 37 40 34 42 46 45 45 48 48 42 36 32 33 39 46 50 41 37 30 42 63 55 57 57 58 62 64 60 64 66 71 65 66
46 44 51 48 28 32 32 31 30 30 34 33 32 35 39 45 41 48 48 42 36 35 38 48 67 59 47 44 51 53 59 63 62 62 60 60 64 62 63 63 76 76 68 68
44 48 47 50 38 33 30 31 34 34 37 40 38 42 47 48 48 49 45 39 38 50 71 68 56 43 39 50 55 59 65 68 63 60 65 68 68 66 64 64 73 73 70 71
45 42 56 49 41 41 36 36 40 45 46 49 53 53 54 56 55 48 43 53 73 70 64 59 46 46 48 65 62 64 66 69 75 74 72 70 73 68 73 73 70 76 76 74

GFSCGP_925_rhum_027.txt.gz
RH
19 18 20 14 14 12 10 12 8 11 14 10 9 13 16 20 19 23 24 28 31 34 37 47 44 44 47 64 72 83 94 90 90 78 72 70 69 64 62 56 59 58 58 57
18 24 16 15 12 13 10 11 12 12 12 16 12 13 18 23 22 22 23 26 28 32 44 46 51 53 54 77 82 82 82 88 82 77 70 59 57 54 50 53 59 56 56 54
37 22 18 15 12 12 12 12 14 14 15 14 15 18 25 24 26 28 25 24 26 32 43 47 51 65 71 79 88 79 78 82 67 52 52 52 53 54 49 51 50 55 55 50
31 19 18 14 14 14 16 16 15 17 19 19 15 17 20 27 29 32 34 32 33 38 40 44 50 72 79 81 84 76 73 56 50 50 45 47 42 42 48 49 50 48 54 49
30 19 18 16 18 18 27 16 17 17 17 22 19 16 45 26 28 29 31 33 39 39 41 44 46 57 73 80 72 56 50 48 52 47 47 48 46 49 46 44 43 38 40 40
29 17 18 19 20 19 19 20 20 19 16 24 14 16 17 25 22 27 32 38 40 40 38 37 42 47 54 61 52 50 47 47 49 50 50 49 45 36 33 37 35 32 34 34
19 18 19 18 21 20 17 20 28 31 27 28 18 20 14 10 19 22 36 40 40 36 33 35 38 41 48 51 51 48 44 46 49 48 42 39 39 38 42 39 32 33 28 29
21 29 20 18 19 18 20 18 28 30 26 20 21 19 14 17 18 21 32 36 38 35 32 32 33 35 40 46 47 43 44 46 46 39 37 42 40 39 33 32 33 33 33 32
20 23 19 20 19 17 20 24 20 27 45 36 16 10 19 22 22 25 32 35 37 34 32 31 32 34 39 44 46 44 44 41 37 42 47 44 41 35 30 33 36 31 33 33
18 25 19 22 20 21 23 18 26 23 35 32 15 14 14 25 23 26 32 34 34 32 31 30 31 36 40 43 46 47 42 36 44 42 48 42 35 34 32 36 35 34 36 39
17 19 27 24 24 18 26 24 22 22 28 33 23 15 13 15 20 25 28 30 32 31 31 31 32 38 41 43 47 44 41 42 44 42 39 36 40 32 34 36 34 34 39 42
20 20 28 26 22 21 21 21 22 31 26 29 39 24 15 16 16 21 24 26 28 28 28 29 34 38 41 44 45 45 45 42 41 41 41 43 33 30 32 33 32 36 41 45
25 23 31 30 27 23 22 19 20 20 28 29 47 22 15 17 17 17 19 23 26 27 27 29 34 38 41 43 41 46 43 42 44 45 44 31 30 31 32 34 33 38 42 44
34 23 26 33 24 20 28 21 20 22 32 26 20 15 14 16 17 15 18 18 22 27 28 30 33 37 40 40 40 45 41 48 47 43 33 26 27 32 36 34 35 39 44 46
31 33 26 23 24 22 21 19 21 22 20 25 20 13 8 9 10 12 14 18 19 25 30 32 35 36 38 39 40 39 42 50 44 38 30 26 30 36 37 34 39 44 48 46
30 32 34 39 28 28 27 22 18 17 17 15 14 15 11 14 11 14 15 19 21 22 28 32 34 36 37 37 40 37 43 45 44 35 31 30 34 37 34 36 44 46 42 43
37 36 40 34 32 31 55 35 24 18 16 18 24 17 12 15 18 18 17 20 23 24 27 31 33 36 37 38 40 37 42 48 39 32 30 32 36 36 36 37 38 38 40 46
43 41 47 48 64 77 16 16 16 19 16 14 14 13 12 13 18 21 20 21 22 25 26 29 32 36 37 37 38 41 46 36 34 31 31 34 32 32 36 38 38 38 42 46
31 39 58 81 36 23 17 13 20 21 18 15 17 16 15 19 27 24 21 22 22 22 25 29 33 36 36 36 41 42 36 30 30 33 32 30 31 39 40 38 38 40 44 48
34 36 42 52 82 86 30 23 23 23 28 18 19 19 20 23 29 21 24 24 25 28 30 33 35 37 37 37 36 33 31 33 32 31 32 33 40 41 39 40 42 46 49 49
72 75 76 60 75 46 21 21 26 35 37 27 25 23 25 28 22 32 29 25 28 28 32 36 37 36 36 34 35 34 39 41 33 36 41 45 39 39 43 46 49 51 51 54
55 69 87 66 92 77 21 27 36 35 24 23 27 27 31 33 31 30 34 32 31 34 36 38 37 34 32 39 52 55 45 37 42 51 54 42 41 46 48 51 54 54 54 59
45 39 43 40 39 28 22 23 22 26 31 30 30 28 29 31 31 31 32 35 35 36 36 34 32 41 54 59 64 62 41 60 62 56 50 47 48 51 52 53 54 55 61 66
34 33 41 40 22 21 21 22 24 25 28 28 29 32 33 36 35 36 35 40 38 32 30 37 54 66 84 86 61 53 59 69 59 56 54 53 53 54 58 59 51 58 75 77
37 36 34 38 29 24 24 26 31 35 36 37 37 39 41 46 43 41 42 38 34 45 55 73 91 96 65 51 49 58 67 67 63 54 54 58 66 67 60 56 55 58 69 76
35 34 52 50 40 48 40 40 47 47 49 47 48 47 46 46 48 42 40 44 60 84 98 81 70 64 51 63 62 58 63 63 66 65 69 69 70 70 66 63 70 66 68 70

GFSCGP_925_rhum_033.txt.gz
RH
39 36 38 33 32 25 27 21 21 18 12 25 25 23 21 22 34 40 41 45 47 40 35 31 34 54 61 55 60 72 73 72 60 62 81 82 77 72 65 62 63 62 60 56
42 51 29 24 27 29 26 23 24 18 13 16 19 21 20 20 27 36 40 45 44 44 47 40 42 64 70 72 73 76 80 76 67 70 78 70 67 63 63 61 59 57 56 55
43 40 29 24 28 30 29 35 25 17 12 11 12 18 25 19 20 31 35 37 38 47 52 53 67 77 83 81 75 76 76 72 74 68 73 67 64 65 61 60 58 56 55 53
37 33 31 28 29 25 25 28 28 21 21 25 24 40 40 36 28 23 29 38 40 48 51 52 74 85 91 89 83 82 77 71 74 74 77 66 63 57 56 58 58 57 52 49
38 36 37 39 29 23 30 25 24 27 29 35 33 41 37 38 26 31 32 31 40 53 54 56 73 84 83 84 85 80 81 76 75 77 68 59 54 53 53 60 56 52 48 46
28 27 32 35 29 29 26 22 27 35 41 49 33 38 46 51 34 32 29 34 36 51 61 69 78 80 80 78 81 83 79 81 75 70 62 56 53 50 50 43 39 41 37 33
30 30 27 33 33 29 25 30 55 64 77 67 35 42 38 33 32 38 36 34 43 57 71 80 84 83 80 79 76 80 79 72 58 49 52 52 49 44 39 39 40 35 31 33
37 45 37 26 32 30 27 31 62 74 85 70 43 49 32 26 26 32 39 39 50 53 64 78 80 77 80 76 78 77 71 53 51 51 49 40 37 38 41 40 34 33 33 33
44 45 37 31 33 25 31 35 34 67 72 82 46 22 25 25 34 53 52 48 56 60 60 65 72 76 71 68 66 57 50 51 52 51 46 41 40 38 39 36 34 35 34 34
56 52 44 38 32 21 22 21 38 50 45 46 34 30 39 30 44 48 50 57 55 52 54 56 58 67 66 57 52 49 48 50 51 46 41 43 42 38 32 34 37 39 40 35
51 56 60 46 38 29 29 29 27 32 52 60 71 42 18 26 29 44 50 50 52 47 48 49 50 53 53 52 52 50 48 49 47 41 44 43 39 33 33 36 37 39 40 37
48 59 77 51 28 20 21 28 42 65 39 55 74 52 17 18 26 28 36 44 50 45 43 44 44 49 52 51 50 48 47 48 44 45 47 46 38 34 37 39 42 47 38 36
34 39 50 38 32 30 26 24 22 34 56 48 67 50 20 15 14 21 26 30 46 48 45 42 42 46 50 52 52 48 48 44 44 46 46 40 36 36 40 43 46 40 35 38
39 34 42 52 38 30 33 26 26 30 69 49 51 37 26 22 20 19 19 19 36 45 42 42 40 43 46 50 54 51 50 43 44 46 42 40 42 42 46 57 42 41 37 40
38 40 27 31 32 27 28 31 30 26 37 47 40 34 28 19 21 22 22 21 19 21 32 41 43 45 46 49 53 55 53 46 44 42 42 44 44 50 56 46 48 49 41 43
37 49 36 41 38 35 34 31 32 30 26 23 27 30 20 19 21 23 22 22 23 26 28 31 35 54 54 55 54 53 53 46 43 44 46 45 43 54 51 55 53 38 39 42
48 55 66 56 46 39 50 33 30 31 27 25 28 27 30 29 27 26 25 26 30 30 29 29 31 38 49 52 50 55 52 50 48 50 48 48 49 56 42 46 52 45 39 41
60 58 77 76 65 48 37 18 18 20 24 25 25 26 29 27 30 33 33 36 36 33 33 33 34 32 38 48 54 53 53 52 51 49 45 45 43 42 50 56 46 45 56 60
55 71 84 73 79 49 33 26 25 26 32 29 34 32 30 29 30 48 40 38 34 31 31 30 32 38 46 55 52 52 54 50 48 46 46 46 49 56 56 52 47 55 65 52
51 65 69 86 80 66 51 24 24 22 52 35 38 40 39 36 60 59 37 36 38 38 46 45 46 47 49 49 46 50 57 58 61 59 62 66 68 58 56 51 49 59 58 61
86 80 80 94 90 75 43 27 24 44 56 38 37 40 42 47 54 46 40 38 41 42 48 56 64 66 68 64 61 72 73 73 69 75 79 75 75 70 62 64 58 58 57 56
77 93 95 96 98 81 34 28 37 58 40 38 36 41 45 46 46 48 46 46 42 47 58 71 78 81 79 76 78 82 79 69 70 73 73 74 74 76 75 71 64 59 59 56
74 79 84 76 82 59 29 34 38 40 48 50 55 58 58 63 60 57 47 41 46 59 79 85 82 78 76 70 67 77 76 76 76 73 74 78 79 72 70 65 60 59 58 60
42 42 60 51 37 37 38 55 55 58 62 59 56 57 58 61 52 49 56 65 80 85 90 88 82 78 73 66 65 68 74 75 74 76 74 70 70 68 67 64 61 68 66 64
59 46 47 49 47 66 63 63 58 59 58 59 57 57 54 57 62 73 79 83 84 87 85 77 79 76 69 60 63 69 72 72 73 72 73 67 64 66 67 68 72 69 67 66
50 52 68 80 66 68 69 65 63 67 67 63 65 68 65 69 75 77 81 81 76 80 76 74 69 63 65 67 68 65 64 63 67 67 66 67 69 66 71 71 72 72 67 68

GFSCGP_925_rhum_036.txt.gz
RH
35 41 40 38 33 34 30 32 36 23 18 31 31 25 29 47 54 58 52 50 52 64 58 61 63 70 73 68 62 60 72 72 72 74 68 67 66 68 68 64 62 62 63 62
41 41 34 32 25 28 33 36 34 25 19 28 31 26 26 39 44 46 46 47 46 47 50 54 59 65 68 66 62 61 69 74 72 69 65 68 68 70 63 65 64 62 59 58
43 34 31 31 26 30 33 35 31 32 20 14 21 29 28 22 35 40 42 41 39 43 47 54 60 67 67 79 71 64 72 73 71 65 66 71 69 66 70 67 63 59 56 54
36 32 32 33 32 29 37 27 26 30 24 22 25 41 38 30 29 41 41 44 43 43 44 61 64 75 77 83 76 79 81 76 68 65 77 70 68 72 65 62 59 57 56 52
30 36 33 33 33 29 35 26 30 27 32 35 32 36 32 36 29 36 35 46 48 47 48 75 74 81 82 83 81 80 77 77 76 68 72 72 64 65 62 61 59 57 54 50
26 30 31 33 31 30 32 30 35 46 45 46 40 39 40 43 29 26 26 37 49 60 67 81 86 91 90 89 91 79 78 78 77 76 73 78 65 64 61 60 59 56 54 50
32 33 29 32 32 30 30 39 58 56 71 56 43 42 39 30 32 33 28 48 52 62 80 93 93 93 96 94 97 86 84 84 81 76 80 83 67 61 56 60 57 58 48 38
42 43 31 32 33 37 38 35 60 51 69 56 47 52 41 28 25 31 34 47 68 73 76 87 90 92 96 97 90 87 90 89 84 82 80 77 61 57 59 50 43 38 34 34
48 46 40 36 37 35 33 37 36 70 74 82 53 31 28 32 37 45 51 50 65 76 87 89 87 88 92 94 92 89 87 84 73 59 63 59 51 45 42 43 40 36 35 37
44 48 42 39 30 30 32 26 38 54 55 59 39 35 42 34 35 50 47 52 65 74 89 90 85 85 80 78 78 81 79 64 53 48 44 42 42 42 43 38 38 36 38 39
49 40 46 42 44 38 30 30 30 39 56 56 68 42 24 35 43 50 52 54 65 67 77 83 82 79 72 70 70 69 64 56 52 49 46 43 41 38 35 35 37 39 39 43
48 58 66 44 35 31 27 34 40 63 36 60 75 48 28 29 36 50 54 55 61 57 61 68 73 77 73 67 61 53 51 52 51 49 46 43 40 42 35 36 39 44 53 55
47 54 59 45 33 34 33 27 32 48 59 50 68 52 24 22 20 32 52 55 57 54 56 56 62 70 70 66 61 58 52 53 52 47 45 42 41 36 33 39 44 52 52 48
39 43 48 57 36 34 35 33 32 39 70 53 57 38 29 26 25 20 25 33 57 57 50 50 52 59 63 64 62 62 62 54 52 47 46 45 42 35 38 48 54 51 41 44
38 40 34 33 33 34 32 32 34 32 37 45 37 41 29 23 23 22 24 22 34 49 46 52 51 53 54 58 60 61 61 55 54 52 51 48 42 41 54 58 48 50 48 43
42 42 37 38 41 34 32 31 31 32 30 38 33 34 32 28 30 32 31 29 33 35 34 37 45 53 54 57 58 60 61 60 58 53 51 48 50 60 56 57 63 52 58 50
49 59 66 56 48 39 56 39 33 30 31 29 33 31 29 32 29 28 36 38 37 36 37 39 40 56 56 56 56 62 64 58 55 52 52 53 54 57 66 64 58 69 65 53
62 66 75 75 60 61 43 29 29 36 34 31 34 33 40 43 45 44 38 40 39 37 40 44 49 49 56 62 71 70 67 64 58 58 57 60 58 55 59 68 70 66 61 57
58 75 83 71 73 53 37 25 27 34 36 32 38 35 35 43 49 48 40 46 48 54 58 60 60 62 66 68 69 69 69 60 56 56 59 60 61 73 81 85 79 73 66 60
65 74 76 92 68 64 47 29 26 33 57 38 44 42 41 41 68 60 47 56 54 56 60 62 62 60 61 64 63 62 67 68 75 77 74 73 81 85 84 81 77 64 63 58
83 85 78 96 78 65 47 33 27 36 43 42 45 46 44 53 56 51 56 54 57 66 72 72 72 74 75 70 68 74 76 80 79 79 83 84 87 90 84 73 68 63 61 62
65 86 90 95 90 63 46 30 38 47 48 49 51 51 63 68 69 58 51 57 69 76 76 75 77 77 71 62 56 69 76 77 75 78 86 88 81 74 69 69 68 66 62 62
62 64 75 73 73 52 40 39 47 51 59 61 73 69 71 70 55 54 63 73 81 84 78 72 71 73 74 71 64 70 78 82 84 75 75 73 70 65 66 68 69 65 63 66
49 62 69 62 65 71 74 67 67 68 68 64 64 65 58 62 67 79 81 82 86 83 79 77 76 75 69 66 69 73 74 70 70 71 70 67 68 65 66 69 67 65 70 72
62 54 57 77 75 70 71 70 66 67 65 66 65 66 70 74 78 80 85 85 83 80 80 75 70 64 64 65 69 70 69 67 65 65 66 66 65 65 66 63 62 64 66 71
56 57 67 73 66 74 79 75 69 71 72 69 73 78 75 77 81 80 86 85 81 77 72 70 69 68 67 66 65 63 62 61 62 62 61 61 62 55 53 58 62 63 68 70

GFSCGP_925_rhum_042.txt.gz
RH
41 42 44 37 35 31 32 35 36 33 23 39 44 38 62 68 73 89 92 93 93 88 75 79 74 75 77 75 76 72 81 86 84 77 76 92 95 85 71 66 64 71 74 71
40 48 36 35 37 38 34 32 33 31 25 34 32 39 52 69 66 75 81 85 83 85 87 85 82 80 77 73 73 75 75 81 85 74 74 86 86 80 70 66 69 72 72 68
42 32 33 35 31 34 32 31 32 34 32 23 30 34 33 46 60 68 72 69 70 76 88 87 90 88 86 84 81 78 79 81 82 76 80 86 85 76 70 69 71 74 70 64
41 35 34 34 34 32 32 30 32 34 35 34 28 36 35 37 58 62 65 71 66 62 76 84 85 88 90 88 83 81 83 83 84 81 84 83 79 74 69 65 67 68 70 64
37 39 40 40 36 32 32 31 33 34 36 37 35 37 31 40 46 58 56 61 60 56 67 78 82 83 85 84 82 83 86 86 82 84 85 82 75 69 64 66 67 67 73 64
33 32 34 34 30 32 30 31 40 47 48 52 40 41 41 42 37 36 44 51 52 54 66 69 71 75 79 81 81 82 85 86 86 85 86 81 74 73 72 72 74 70 68 65
35 35 31 33 32 34 34 42 56 54 65 56 43 50 46 31 28 33 38 43 48 50 67 71 76 79 78 78 82 85 86 89 87 84 86 85 83 79 77 71 74 72 66 60
43 42 36 34 32 38 37 41 61 50 62 48 47 54 37 30 37 47 39 36 49 60 65 69 69 78 81 83 84 89 94 94 90 85 82 86 86 86 81 73 72 70 62 57
49 41 37 36 36 32 38 43 38 70 73 78 54 44 28 35 48 52 44 54 58 72 73 73 80 80 85 89 85 88 91 93 89 82 82 87 88 88 88 80 76 68 62 57
38 33 38 38 37 34 32 38 45 58 52 53 50 43 41 30 32 47 48 52 64 79 85 92 92 92 90 84 79 83 88 87 86 88 87 89 90 93 96 89 80 71 64 58
42 32 33 41 41 39 42 40 44 46 56 54 64 48 36 28 31 36 45 55 62 82 92 95 95 93 89 88 81 83 90 93 91 88 92 93 94 97 95 88 84 72 66 53
40 42 43 36 36 34 33 40 43 64 43 65 75 55 29 28 30 32 38 44 56 78 88 92 93 97 98 94 94 94 84 85 93 88 88 92 94 92 88 84 78 72 59 48
46 47 46 40 36 37 38 39 43 54 62 63 71 53 28 31 26 24 35 43 55 69 80 89 95 96 98 100 100 100 95 94 95 88 89 90 88 88 84 73 62 52 45 44
41 52 41 42 37 39 43 40 48 48 71 56 60 41 32 30 30 29 29 29 53 65 70 81 90 93 92 92 95 96 98 97 93 89 86 80 79 68 60 58 54 46 50 56
40 44 47 38 33 36 35 36 46 44 44 49 41 49 38 34 28 28 28 44 49 63 65 69 73 80 85 85 84 84 86 86 85 83 78 73 64 61 57 50 51 58 62 68
47 46 36 44 41 40 42 40 44 42 39 43 41 40 36 31 36 44 43 47 49 50 51 57 61 61 63 69 76 80 80 80 79 80 74 67 62 57 55 60 63 65 69 72
50 61 59 48 49 42 60 47 43 40 42 41 49 41 36 35 43 44 45 46 50 56 64 71 78 88 86 79 74 81 85 85 82 76 74 66 61 63 65 68 72 80 86 90
63 60 68 75 62 58 38 37 36 44 41 38 35 35 36 42 46 47 46 49 60 69 72 73 81 88 87 82 81 81 81 81 82 83 78 75 71 71 72 75 85 92 96 99
62 72 78 70 73 51 39 38 40 39 36 39 40 49 55 58 56 63 64 69 73 76 76 78 78 80 81 80 79 77 80 81 80 80 78 76 71 73 82 95 97 96 97 94
62 70 69 82 70 70 52 40 32 30 45 40 51 60 63 57 56 67 68 74 80 81 80 78 76 76 76 77 73 73 78 79 84 84 81 79 83 79 86 93 98 91 80 71
85 84 76 94 78 71 52 35 32 40 47 47 52 59 60 51 54 76 80 81 80 81 79 76 76 80 80 76 73 83 86 88 78 73 75 78 86 94 98 93 79 71 69 69
75 85 87 86 81 71 44 38 41 45 50 52 52 57 60 78 78 82 80 79 78 82 82 79 81 81 80 76 73 89 94 93 91 91 90 90 83 76 73 70 67 67 70 70
63 67 75 71 71 53 50 39 39 50 55 54 58 69 72 76 78 82 84 82 82 83 82 79 83 83 80 78 80 86 86 79 71 67 68 66 64 63 64 63 62 64 66 69
59 60 65 60 58 63 66 67 66 61 61 69 73 71 66 77 82 86 86 85 84 80 74 74 75 78 79 76 76 77 74 69 63 63 66 68 69 70 70 71 72 73 71 73
66 64 75 71 79 72 72 74 71 78 78 76 74 71 75 80 85 88 90 87 83 76 72 73 77 81 83 78 81 77 73 71 72 78 84 87 87 86 84 82 84 85 81 85
71 68 72 63 60 58 62 79 76 79 81 79 80 85 82 80 88 85 89 83 78 79 78 81 81 87 96 90 88 84 85 85 84 82 81 80 77 76 83 92 85 69 73 80

GFSCGP_925_rhum_045.txt.gz
RH
40 36 37 33 34 30 31 33 31 28 25 37 40 38 40 70 77 74 67 72 73 69 61 70 78 84 80 83 84 83 82 83 91 84 76 81 91 86 90 86 82 80 77 73
37 41 35 34 37 36 35 33 32 29 26 29 29 27 33 60 68 65 64 68 66 66 68 69 77 82 84 79 82 85 90 89 88 81 69 80 86 93 89 75 69 68 71 73
40 30 37 37 34 37 34 32 34 32 30 26 29 27 32 50 57 58 64 62 63 63 68 70 77 80 81 82 81 85 88 89 85 89 83 77 85 91 90 77 74 75 75 73
38 35 35 36 35 32 36 29 32 33 32 30 27 27 28 35 54 58 53 62 62 60 63 63 73 77 79 83 84 80 86 84 87 90 89 80 79 84 88 80 76 74 77 72
36 38 40 40 35 32 32 34 34 34 35 37 34 31 26 36 35 47 51 54 58 56 56 60 66 72 77 84 85 81 85 81 82 87 89 86 83 85 88 82 77 79 76 70
33 34 35 35 33 33 32 33 38 42 40 43 37 33 30 29 29 29 32 46 50 53 59 56 61 70 78 91 86 86 92 88 93 93 91 89 90 86 82 80 79 75 77 72
37 36 32 34 34 35 33 36 44 49 53 48 44 43 31 27 27 28 29 30 41 50 54 54 61 73 75 88 92 94 93 94 94 97 92 92 91 87 82 74 71 74 75 75
36 35 35 36 32 35 39 36 51 46 50 41 46 42 24 29 27 38 42 39 34 45 52 51 56 65 74 82 87 92 92 90 98 98 93 98 92 89 81 75 72 73 71 70
47 38 35 37 35 31 37 40 37 59 70 61 41 35 25 31 31 36 40 43 41 44 49 51 54 63 70 79 85 90 91 89 97 98 100 100 98 90 87 83 80 80 76 71
40 36 40 40 36 38 35 35 44 50 54 56 41 40 25 25 27 34 38 40 45 54 60 59 59 64 70 78 84 90 88 88 92 97 99 99 99 91 93 92 91 88 83 77
40 34 35 42 40 36 42 40 44 40 46 46 46 34 32 27 25 31 36 40 46 56 61 66 68 70 73 81 85 88 86 88 92 98 99 99 98 94 97 96 98 96 89 84
39 45 46 35 36 34 35 39 41 53 46 56 56 40 27 30 26 29 29 39 42 50 58 68 72 79 81 81 83 86 92 93 92 94 90 93 97 100 100 100 100 100 92 80
45 44 42 34 34 37 38 38 42 49 56 54 69 40 27 28 28 25 28 32 44 50 61 69 73 78 83 88 92 93 96 93 93 92 95 100 100 100 100 100 100 97 92 84
37 47 41 36 34 37 46 42 43 43 57 51 48 36 30 26 27 24 27 28 27 50 59 69 76 77 83 88 91 97 100 100 99 100 99 98 100 100 100 97 92 88 83 74
41 43 46 37 31 36 36 39 45 40 42 48 38 40 30 29 28 27 30 41 52 59 60 62 64 70 80 85 87 91 95 94 95 95 94 94 89 88 87 81 70 64 61 65
48 45 49 42 43 39 41 38 42 42 40 40 37 38 30 30 30 35 42 47 47 51 57 64 66 65 68 75 82 91 92 91 90 90 88 82 80 74 65 63 63 65 72 71
53 60 56 50 49 42 57 48 42 40 40 38 44 33 34 33 36 42 44 45 53 59 61 66 74 78 81 86 90 92 93 91 88 86 83 82 70 68 70 69 71 75 83 92
59 59 62 68 62 65 37 38 35 39 39 36 37 32 33 34 42 45 43 50 58 58 64 70 74 79 82 83 87 89 89 89 86 83 80 81 75 76 76 79 91 97 93 92
55 66 73 74 60 48 37 37 39 40 28 33 34 35 38 48 50 56 61 60 62 66 70 74 76 77 78 78 81 82 82 81 80 79 78 78 81 88 94 98 96 93 96 92
64 62 62 72 63 64 46 36 35 29 42 33 36 46 50 51 51 49 63 66 69 71 72 74 77 78 77 79 79 79 80 81 84 84 85 86 89 87 88 89 98 99 83 85
74 73 66 75 72 59 44 36 34 45 39 40 41 48 52 47 48 61 68 70 71 71 74 77 76 76 78 81 81 81 82 84 87 88 91 88 91 96 98 88 75 75 78 73
69 76 80 75 77 60 44 37 42 44 43 46 49 52 56 67 74 70 70 72 71 72 74 75 78 82 85 81 79 83 90 95 94 92 87 80 74 72 71 69 69 71 79 80
73 63 65 57 60 51 44 40 40 42 41 50 51 54 63 73 72 71 73 72 71 71 74 76 78 82 85 85 83 82 81 76 73 72 76 73 67 67 67 75 79 76 80 84
64 61 66 59 53 52 54 53 58 51 49 50 49 54 59 67 71 73 72 72 70 71 74 76 77 78 81 83 86 85 73 66 70 80 86 88 87 85 86 84 84 82 84 84
65 65 69 62 58 69 61 64 58 63 68 66 62 60 63 70 72 70 72 70 69 72 74 74 76 82 91 96 98 88 82 82 87 87 85 82 78 71 64 62 67 66 69 82
64 62 69 64 49 50 41 53 67 70 69 65 67 71 67 67 72 70 71 70 71 75 76 79 86 89 90 89 88 88 80 75 75 70 63 67 65 66 64 64 61 73 86 88

GFSCGP_925_rhum_048.txt.gz
RH
26 26 25 18 18 17 20 19 17 19 20 26 23 20 20 40 48 44 39 40 42 45 44 55 52 53 53 57 66 70 78 82 93 77 64 53 59 67 78 80 84 86 79 80
30 28 21 24 26 25 25 22 20 21 21 23 17 17 17 32 40 39 34 35 35 38 42 48 56 53 52 53 60 65 67 72 81 72 63 54 51 60 65 74 86 88 84 79
24 22 26 26 26 28 27 23 22 22 22 20 20 18 20 26 33 38 35 31 31 33 42 46 50 57 60 56 61 60 60 66 75 73 70 63 61 67 71 76 89 80 75 76
23 21 26 26 26 25 27 21 22 24 24 23 21 22 16 21 29 38 40 40 38 35 35 39 47 53 56 59 57 60 61 65 72 80 70 63 54 60 66 72 74 79 84 85
24 28 30 27 24 24 23 22 24 24 23 24 22 23 17 23 21 25 30 32 35 33 32 34 39 48 54 56 60 60 59 63 68 74 74 69 58 51 59 73 77 84 88 84
20 23 24 21 25 24 24 27 26 27 26 35 20 22 18 16 16 14 16 24 29 32 33 31 33 41 47 53 59 66 64 64 68 75 79 74 69 60 60 77 81 83 87 86
24 23 20 25 26 28 26 27 35 39 40 38 28 27 18 16 16 19 19 17 20 27 33 35 33 39 46 53 63 70 69 63 65 71 76 78 80 77 75 77 79 81 87 84
26 29 24 22 22 24 26 25 34 45 41 32 32 29 19 17 17 21 25 26 26 23 27 32 35 37 43 52 64 69 69 66 65 74 79 79 86 90 85 78 80 87 88 74
24 22 22 25 24 21 30 33 24 36 50 43 25 22 16 17 18 18 22 26 25 24 24 29 30 34 42 51 61 68 66 64 64 80 84 91 99 97 91 86 89 87 78 78
23 26 28 31 27 30 27 24 36 33 46 42 28 25 18 16 16 16 16 20 26 32 31 30 31 34 41 48 59 67 70 66 67 76 88 91 93 95 93 95 100 86 83 88
19 22 36 34 32 27 33 32 31 29 32 37 36 25 16 15 16 19 20 20 22 30 35 38 38 41 45 50 57 66 68 66 67 73 78 86 91 93 94 99 100 100 99 99
21 24 29 27 26 25 20 23 27 35 32 33 35 29 15 16 18 20 19 21 24 28 33 40 43 49 50 54 56 60 61 61 63 69 76 80 88 95 98 100 100 100 100 100
26 28 32 29 28 28 26 24 23 27 34 32 52 31 19 19 20 18 18 20 26 30 31 38 45 48 52 56 58 61 68 68 69 72 79 87 98 100 99 100 99 99 100 99
30 22 26 31 22 19 29 25 22 26 37 30 33 24 20 18 17 16 18 18 19 24 34 38 45 47 55 60 65 69 78 82 87 87 88 94 100 99 99 99 100 100 100 96
27 27 25 20 17 16 18 18 22 26 26 29 27 24 20 18 18 16 19 24 28 29 38 43 44 47 54 61 68 72 82 86 87 89 90 97 98 95 93 89 86 88 87 89
30 28 26 29 22 22 21 18 17 22 19 22 24 22 17 18 19 21 22 28 33 40 45 46 47 48 52 58 61 74 76 79 78 78 79 81 78 77 81 84 85 86 80 86
40 33 35 33 30 30 51 33 24 22 25 26 27 22 17 20 22 22 27 31 38 44 46 47 48 50 55 64 66 69 73 75 74 74 74 75 74 76 80 77 76 80 88 87
45 42 40 42 65 77 23 24 21 23 22 21 22 19 19 19 21 27 28 36 39 42 47 48 51 55 60 64 68 69 69 70 70 69 71 71 71 73 75 79 86 95 85 85
42 43 53 74 48 29 30 30 29 30 24 18 20 18 17 25 33 41 36 35 39 44 47 51 54 58 60 62 64 64 64 65 65 66 66 68 70 76 77 86 96 96 91 95
48 49 52 60 52 76 26 21 22 23 34 17 18 21 22 32 40 27 45 46 49 50 53 56 58 59 61 62 62 62 63 65 67 68 69 72 76 79 84 98 97 95 84 70
67 64 71 59 63 38 27 25 24 36 32 20 19 22 29 36 26 37 45 49 48 52 56 58 56 59 63 64 63 63 65 67 70 72 78 85 92 96 90 79 71 65 62 65
58 65 80 56 81 68 29 29 29 24 33 25 29 27 34 34 47 48 48 50 50 53 58 58 61 63 63 62 62 64 69 73 76 79 80 76 71 63 62 60 58 55 55 59
54 46 47 44 42 32 32 24 24 28 23 31 28 29 33 50 49 49 51 51 50 52 55 58 62 64 64 63 63 66 70 70 69 64 61 60 59 58 60 58 61 58 62 66
44 48 55 52 29 33 34 26 29 28 28 27 28 32 43 47 49 51 52 52 50 52 54 59 63 64 66 65 63 62 60 57 57 59 62 63 64 60 60 55 50 44 50 54
36 50 44 44 35 44 40 36 29 35 39 38 32 36 41 45 49 50 52 52 50 53 59 59 62 65 67 68 69 64 61 58 58 60 59 57 54 40 34 35 46 51 62 70
43 44 55 49 32 41 27 29 35 39 42 40 39 42 40 44 48 49 51 51 54 57 58 62 65 66 68 69 68 65 62 58 54 47 44 52 48 48 42 39 40 58 59 62

GFSCGP_925_rhum_051.txt.gz
RH
18 21 21 17 15 13 13 13 12 14 16 19 22 18 29 28 28 31 32 31 32 37 37 47 50 52 51 50 59 65 68 70 74 68 60 48 56 56 55 64 70 72 75 83
21 25 16 17 18 18 16 17 14 16 15 18 20 18 17 22 27 26 28 29 30 31 36 42 50 49 49 49 55 59 60 61 72 64 56 48 42 47 46 52 62 65 74 75
23 18 17 19 19 18 17 19 19 20 26 14 15 15 12 13 20 23 22 22 23 28 34 40 42 44 48 48 52 56 58 63 74 66 54 49 44 43 48 50 60 71 76 75
20 15 20 20 20 16 19 15 18 17 18 20 18 22 24 14 19 23 23 21 21 23 28 33 41 42 44 45 48 52 53 53 54 56 52 51 46 42 45 49 53 70 86 91
20 18 22 22 20 16 18 18 18 17 19 19 27 21 23 15 16 18 23 23 22 22 24 29 34 40 44 45 47 51 50 50 50 54 57 55 53 45 46 53 57 70 77 84
16 14 17 18 17 17 16 21 20 20 20 31 20 22 20 19 13 13 14 18 22 22 23 24 28 33 38 43 47 49 50 48 49 51 60 58 53 52 43 48 62 68 70 77
19 19 17 18 22 21 20 23 35 37 32 36 20 18 16 30 13 12 13 13 16 20 22 23 23 28 34 40 46 50 50 46 47 51 56 61 58 58 54 48 62 67 72 76
25 25 19 18 19 24 22 22 36 53 46 34 24 23 16 15 13 12 13 15 15 16 20 22 22 24 30 37 44 50 51 51 46 55 62 62 64 64 65 63 63 67 70 74
22 21 13 15 16 17 23 26 19 29 34 40 26 17 20 14 11 13 13 16 17 18 18 19 22 24 27 36 43 50 52 53 53 67 69 71 77 72 78 81 76 74 79 84
16 23 15 17 16 17 20 21 29 30 47 49 23 20 18 16 14 12 12 14 18 22 19 19 20 22 27 32 42 51 57 56 57 59 72 73 71 85 90 87 86 89 100 94
15 19 22 24 26 23 26 29 25 25 28 50 36 24 14 14 13 13 13 13 13 20 25 25 24 24 25 28 38 49 56 56 53 54 64 73 81 87 97 95 94 95 97 98
16 20 29 28 18 16 18 23 24 35 36 29 31 30 14 14 12 13 14 14 13 15 23 30 30 33 33 36 39 48 54 55 53 56 61 70 82 87 91 93 97 96 99 100
19 22 32 27 25 22 25 23 21 24 25 34 54 32 14 13 14 13 13 12 14 17 19 27 35 37 39 42 44 48 52 51 51 55 58 70 91 97 100 100 100 100 100 100
32 22 27 31 24 21 25 21 18 22 40 33 27 21 18 16 15 14 13 14 14 19 20 21 28 36 41 45 47 50 56 57 60 61 65 89 98 99 99 99 99 100 100 99
29 28 23 19 17 16 17 18 18 20 22 30 24 20 17 15 14 13 13 14 14 15 18 23 26 32 39 48 53 58 74 77 79 86 91 97 99 97 98 97 97 98 95 97
24 31 26 24 18 17 18 15 14 14 16 17 17 17 13 12 12 14 16 16 17 19 20 24 29 35 44 52 57 68 70 72 75 75 78 79 76 76 79 81 84 82 85 84
34 35 31 36 21 21 35 20 16 15 14 16 21 16 13 14 13 14 14 16 19 24 30 35 38 42 46 54 60 62 64 66 66 67 68 70 70 72 72 69 70 72 76 82
40 34 35 48 61 60 25 16 16 18 16 14 15 14 14 12 12 14 15 18 25 32 37 39 40 45 48 51 54 56 57 60 60 62 64 66 66 66 67 71 76 82 85 85
35 43 53 62 50 28 20 20 20 20 18 13 14 14 13 12 17 23 21 22 30 34 35 36 40 44 47 49 50 51 53 55 57 58 60 62 64 68 70 74 79 86 94 92
32 41 58 55 55 58 29 18 15 15 31 14 13 14 15 16 32 20 27 29 32 34 37 40 44 45 47 48 49 49 50 51 54 57 60 63 65 70 80 93 90 88 84 66
64 62 77 66 58 35 19 16 15 36 33 15 14 14 16 18 20 24 30 36 36 37 40 44 44 46 48 49 50 51 54 56 59 62 67 75 81 85 90 83 73 60 56 54
68 64 82 64 67 68 23 22 28 24 21 19 18 17 20 20 33 35 37 37 37 39 44 43 47 50 52 51 52 53 56 60 66 69 71 73 72 63 60 56 50 46 47 54
56 52 54 44 40 30 30 26 21 17 18 22 21 19 21 31 36 37 38 38 39 40 42 45 48 52 52 51 53 55 61 64 67 65 61 57 50 46 45 45 50 45 50 54
30 29 44 42 32 28 28 26 21 22 22 21 21 20 24 36 36 37 38 39 40 39 42 45 50 52 53 54 55 59 60 58 56 53 51 50 48 47 45 41 34 34 46 49
28 26 36 36 28 24 24 29 30 24 24 24 24 22 26 34 36 37 39 40 37 39 43 49 51 54 55 54 54 52 51 49 48 48 46 46 42 34 29 34 39 47 72 56
26 34 49 46 23 37 34 26 30 27 26 31 29 27 30 32 36 37 39 39 39 41 48 50 54 55 55 54 52 52 49 45 44 43 42 47 44 40 31 30 52 52 51 51

GFSCGP_925_rhum_054.txt.gz
RH
18 21 21 18 18 18 15 14 14 16 18 19 24 24 44 37 26 28 30 33 37 40 44 52 54 58 57 60 67 68 68 68 69 74 67 68 74 64 56 50 53 67 68 73
20 25 17 15 16 18 17 17 15 12 16 16 13 17 37 36 53 27 29 32 35 36 43 52 52 54 59 65 65 65 65 59 64 74 75 64 60 61 56 53 63 65 71 78
24 19 17 16 19 18 16 16 15 20 22 16 14 15 13 30 37 23 26 26 29 33 43 48 51 55 55 66 70 70 70 66 69 75 74 62 51 54 58 57 59 59 70 73
19 16 18 20 20 17 19 12 14 19 21 22 18 25 14 15 18 22 23 25 28 30 37 44 47 52 54 55 59 61 64 66 74 69 64 57 52 47 48 49 54 59 67 70
21 18 19 21 19 16 18 17 18 15 17 18 20 28 20 16 18 20 23 22 24 26 33 41 44 48 51 51 56 57 57 58 60 68 67 63 52 47 43 47 49 62 72 74
17 13 15 16 16 16 15 19 21 19 20 33 20 24 30 21 20 19 18 21 20 22 29 34 40 41 46 49 52 56 55 55 55 66 65 60 56 51 48 47 52 62 71 73
19 16 14 15 19 17 18 22 36 40 39 42 21 23 21 24 22 15 19 18 21 22 24 29 36 40 42 45 49 53 55 53 53 52 54 55 56 62 54 49 54 65 74 79
25 28 16 16 20 22 24 24 37 55 64 44 39 32 20 18 17 13 12 14 15 22 25 26 28 35 39 44 49 50 51 53 50 51 51 56 59 59 63 62 54 61 70 74
26 24 14 16 16 17 24 29 20 29 42 54 43 31 22 18 15 11 12 13 16 17 22 24 24 26 34 40 46 52 51 50 48 50 50 56 59 74 71 78 66 62 67 73
21 29 17 15 15 17 19 20 32 28 54 58 30 27 27 20 14 12 12 15 17 19 19 21 22 25 28 37 43 49 52 50 50 50 58 70 68 67 67 61 79 79 77 85
19 25 23 16 19 20 20 25 30 28 29 49 50 33 25 20 14 14 14 14 15 18 24 23 23 22 25 31 41 50 53 51 52 62 67 73 62 65 64 84 87 86 92 96
19 25 31 22 16 16 17 23 26 43 38 37 54 43 16 19 14 15 15 13 14 17 25 27 27 25 26 30 39 47 53 54 56 64 78 74 73 76 83 87 89 94 96 96
21 27 37 28 23 20 22 21 22 26 30 41 76 44 15 15 14 13 15 14 15 17 24 29 32 34 32 32 34 46 52 54 54 57 71 69 82 91 96 100 100 100 100 100
28 27 31 39 39 26 28 21 26 29 47 43 46 34 25 16 16 13 15 15 14 19 18 26 34 36 38 39 41 46 52 53 56 63 85 94 97 98 100 100 100 100 100 100
30 35 32 23 20 21 22 22 22 24 23 49 43 26 18 16 19 22 24 17 15 15 18 21 31 38 41 44 46 51 70 79 83 91 98 100 95 93 96 98 98 99 98 98
29 38 32 34 21 22 22 19 18 18 18 17 19 22 15 14 14 22 22 17 16 15 14 17 24 34 42 47 53 76 82 82 83 88 92 93 91 92 94 92 91 89 91 92
38 37 38 45 28 25 35 23 18 16 16 16 21 18 14 14 13 14 14 14 16 17 18 20 26 35 45 53 74 71 74 76 76 79 79 77 79 82 83 82 82 81 84 84
37 39 39 55 60 56 25 17 17 19 17 14 13 12 12 13 12 12 12 15 18 22 28 33 44 51 61 67 62 64 66 67 68 67 69 71 72 70 69 72 79 85 85 86
39 51 65 64 56 36 25 22 21 23 22 16 16 14 12 12 17 17 19 18 23 33 37 40 43 47 53 56 59 58 60 60 62 64 65 65 66 69 74 78 80 84 85 85
41 50 71 72 64 67 39 24 16 18 35 18 15 18 16 15 30 23 25 25 33 35 36 39 43 46 49 50 51 52 54 56 56 58 61 64 67 71 84 79 80 81 78 75
70 77 90 76 74 48 24 22 19 38 39 23 18 19 18 22 22 26 28 32 32 33 35 39 42 44 46 47 48 49 51 53 56 59 63 71 80 82 84 80 72 72 58 59
68 83 90 74 82 79 26 24 31 30 30 25 23 20 20 23 34 32 32 33 34 35 37 41 43 45 46 46 48 50 54 56 62 70 76 79 81 80 74 63 53 46 52 57
64 52 72 53 51 46 38 32 28 30 32 30 26 23 23 39 35 34 37 38 36 36 40 40 44 48 49 48 51 53 58 64 68 70 70 66 57 53 50 49 46 49 56 55
37 35 51 51 34 36 42 41 35 28 32 25 25 23 23 39 37 38 38 38 38 37 39 41 47 50 51 50 51 58 62 65 65 60 55 48 45 45 43 42 36 48 53 48
36 31 43 40 36 35 33 29 41 34 33 28 26 27 28 33 37 37 38 39 38 38 39 44 49 51 52 53 58 59 60 57 53 51 49 49 45 37 34 38 47 56 45 49
25 27 40 52 35 41 38 41 31 30 29 31 31 31 29 30 36 36 38 39 38 39 43 48 50 53 53 54 54 52 50 48 48 48 49 44 37 31 35 44 43 48 47 47

GFSCGP_925_rhum_057.txt.gz
RH
24 32 35 30 26 23 22 24 23 18 18 21 45 57 53 48 64 65 59 57 56 73 73 78 81 81 84 90 95 91 89 90 87 80 76 67 61 52 56 53 52 61 53 53
28 33 25 21 20 21 23 24 24 19 22 21 28 58 48 53 54 52 49 55 53 62 70 71 74 76 75 78 83 86 80 78 79 70 69 66 60 57 55 48 49 46 53 65
32 28 21 22 22 24 23 24 24 22 22 21 23 30 48 45 55 46 57 44 47 64 64 64 66 68 67 75 76 72 76 72 69 64 67 66 64 63 57 62 55 59 61 67
29 22 23 23 24 22 26 21 18 18 26 37 24 39 28 53 59 65 51 42 45 59 60 58 60 64 62 68 71 70 72 70 70 74 76 71 72 66 68 64 54 50 64 63
28 26 26 26 25 22 24 22 24 23 27 24 27 36 32 41 55 62 49 38 42 52 59 60 58 59 63 67 69 67 69 64 62 66 75 77 75 62 56 56 57 53 57 59
24 18 21 22 20 20 19 22 22 28 31 46 32 33 35 29 23 30 31 36 36 44 54 54 56 57 59 66 73 73 72 70 63 66 71 77 77 63 53 48 53 54 63 62
27 25 19 18 22 21 22 28 49 57 54 59 33 38 32 27 27 22 29 29 32 36 49 52 53 56 58 58 68 72 71 74 75 76 72 76 65 63 55 47 45 51 60 66
37 42 24 18 21 25 27 33 60 56 70 60 43 46 32 26 24 20 19 22 26 33 41 48 50 52 54 56 60 63 63 63 65 66 72 66 63 60 64 56 53 52 52 56
36 34 18 16 18 22 31 37 30 41 46 66 54 41 30 27 24 22 17 20 26 31 34 42 46 47 48 54 54 60 61 60 61 62 69 70 63 66 63 61 58 58 61 64
28 39 22 19 18 22 24 25 40 41 59 64 48 45 44 30 25 20 16 18 21 28 30 33 41 45 45 47 52 54 58 60 57 59 59 61 63 65 60 62 65 62 63 69
22 31 33 23 24 27 30 29 31 39 53 65 62 52 28 28 27 21 16 19 25 28 29 32 34 36 42 45 48 53 54 56 60 59 59 59 61 64 69 67 75 74 76 88
24 32 37 30 22 19 22 28 32 66 55 56 66 58 26 23 24 20 18 19 22 32 32 31 32 33 37 40 46 51 56 58 60 60 69 70 77 83 87 82 78 70 89 91
29 30 46 38 27 22 24 24 26 31 51 55 77 64 27 24 21 20 20 18 21 35 37 38 40 40 41 43 42 49 56 61 66 80 79 80 73 78 93 88 92 100 100 100
29 31 31 45 39 30 34 26 24 33 57 47 64 47 36 33 26 16 21 21 21 26 38 42 45 44 43 44 54 64 63 69 66 90 91 96 97 98 100 100 99 99 100 100
34 34 28 30 29 28 30 31 27 29 33 48 45 42 33 30 26 23 25 22 20 24 37 43 48 52 53 56 78 92 85 82 82 86 94 100 100 100 100 99 99 100 100 100
39 45 36 36 29 31 34 33 30 26 31 33 35 36 28 23 24 24 22 25 23 19 24 38 44 51 56 73 88 91 95 99 99 100 100 100 100 100 99 97 98 98 98 98
68 51 56 49 34 33 49 34 30 31 25 26 30 27 21 23 21 27 22 23 24 21 20 23 48 54 58 79 86 90 87 87 92 97 96 96 97 92 88 87 87 90 89 89
97 74 63 74 58 63 35 27 24 26 24 20 19 18 18 18 17 18 20 22 25 24 33 60 63 74 77 81 82 85 84 88 87 86 88 92 89 88 85 85 85 87 87 85
85 84 84 68 62 46 35 26 26 28 31 20 20 19 18 16 17 23 23 25 33 41 53 66 72 80 76 76 75 78 78 78 78 80 82 81 79 81 82 88 87 84 84 85
87 86 86 94 76 66 46 36 29 25 42 22 22 25 22 21 34 32 30 43 51 56 54 60 65 69 72 71 70 72 72 72 75 74 74 72 77 84 84 81 83 81 79 75
97 99 99 100 99 74 38 29 26 42 44 26 26 24 24 30 37 32 44 47 49 51 52 53 59 64 65 64 66 67 68 68 68 68 70 75 76 79 79 78 78 76 81 72
80 92 98 95 99 90 49 39 34 38 32 31 28 25 21 40 40 42 47 47 48 52 53 52 57 57 55 57 60 63 64 63 67 73 78 81 79 78 78 74 74 75 63 61
82 68 83 75 82 60 53 59 55 60 61 38 37 33 45 43 42 46 49 50 49 52 53 50 54 54 52 52 55 62 68 71 76 80 81 80 80 76 72 63 57 59 60 68
48 51 62 63 54 43 41 49 50 59 59 58 38 48 59 59 50 50 51 51 50 54 54 50 55 59 58 54 58 67 73 75 76 79 78 74 72 67 52 53 58 56 55 50
54 48 52 57 50 53 41 41 44 48 58 49 49 34 46 60 56 53 54 53 52 50 50 55 60 60 60 60 66 70 70 71 71 68 58 49 47 42 45 52 53 52 52 48
42 40 68 81 59 56 50 48 50 56 46 50 46 48 36 48 52 50 54 54 53 55 56 61 60 64 67 66 66 67 66 62 57 56 49 44 38 39 44 51 48 40 32 28

GFSCGP_925_rhum_060.txt.gz
RH
23 30 33 34 33 28 27 30 32 26 26 35 43 43 51 65 62 74 76 79 88 91 89 91 91 92 99 100 100 99 93 96 91 79 82 82 80 59 50 46 43 61 57 56
28 34 26 27 28 29 29 31 30 24 24 25 48 45 45 57 64 66 69 72 80 86 91 88 92 97 100 100 99 100 96 93 91 87 79 78 77 68 66 63 64 60 58 58
32 29 24 27 28 30 28 30 30 26 20 24 48 44 52 49 52 52 54 58 64 80 89 85 86 92 96 98 100 99 92 84 82 75 75 76 71 68 62 58 53 44 37 46
33 24 26 30 29 27 34 25 25 25 28 38 26 42 50 56 57 56 54 57 60 72 77 78 80 84 86 90 95 96 93 90 83 80 78 72 67 63 57 52 44 42 40 53
39 32 32 32 29 25 29 26 27 26 28 28 27 37 35 53 54 50 54 53 56 66 74 76 75 77 78 81 86 88 88 83 82 80 72 72 68 63 57 59 52 44 51 50
32 25 25 27 24 25 23 24 25 34 37 49 34 36 39 68 50 42 45 50 49 63 65 68 67 69 70 74 79 75 77 80 75 73 70 73 73 68 70 65 67 68 62 56
30 30 24 23 27 25 24 33 50 54 54 58 35 43 37 27 32 41 41 48 45 55 62 63 65 65 65 70 75 74 70 76 72 69 70 78 76 76 78 67 66 68 65 60
37 47 29 24 27 28 31 35 60 56 68 57 45 50 37 27 28 28 35 38 39 45 57 62 61 61 63 66 70 73 71 72 70 66 67 72 81 80 77 77 68 63 56 54
47 41 24 23 23 23 31 39 32 45 54 67 57 46 32 28 28 24 30 35 38 41 52 58 58 59 60 64 70 71 71 71 72 68 64 66 72 76 82 86 77 62 55 54
33 44 29 23 22 23 26 30 43 54 57 64 53 45 46 34 32 27 25 27 32 36 43 53 54 57 59 60 63 72 71 72 72 73 74 73 76 80 83 81 79 71 61 64
32 34 34 30 30 30 32 35 37 43 59 63 64 54 39 34 33 24 23 22 28 36 38 45 50 50 54 57 59 65 73 73 73 74 76 76 78 79 84 84 81 88 81 79
33 39 43 33 25 23 22 30 35 57 56 63 71 60 31 29 26 20 20 23 32 34 34 36 43 48 50 52 55 59 62 68 68 71 73 73 75 81 76 76 94 82 99 90
63 45 49 44 30 25 28 30 28 38 54 52 71 60 33 28 28 25 22 22 25 35 37 42 47 45 46 49 49 53 58 60 67 74 73 82 83 80 77 80 89 74 94 94
69 62 52 46 37 34 33 32 27 33 64 50 59 46 43 36 31 31 28 24 24 39 39 43 51 52 53 49 47 50 54 60 67 79 73 86 85 89 90 90 87 86 91 98
78 89 49 39 29 28 33 32 32 32 39 48 42 45 38 38 33 32 26 26 24 26 43 47 50 55 72 78 65 55 62 67 73 82 84 88 88 97 100 100 99 98 100 100
78 92 69 50 35 29 30 32 31 30 33 37 36 46 32 31 32 30 29 27 25 26 31 43 48 57 81 86 85 88 98 92 88 91 100 99 100 100 100 100 99 100 100 100
83 97 97 85 38 36 49 37 32 36 36 36 46 38 32 31 29 30 27 26 26 27 29 44 51 58 77 87 84 90 99 100 100 99 100 100 100 100 100 100 100 100 100 100
86 92 98 97 67 74 39 32 30 34 32 30 29 26 27 26 22 26 26 23 26 27 27 33 48 60 76 90 91 93 100 100 99 100 100 100 100 100 100 100 100 99 96 95
79 89 100 99 89 54 48 42 39 38 33 28 26 22 20 19 20 23 26 26 26 31 38 59 56 70 92 95 96 96 98 100 100 100 100 98 96 95 98 97 92 89 84 83
85 85 91 99 97 96 49 37 31 27 49 28 25 27 26 23 35 35 28 35 49 60 73 88 84 89 90 94 91 94 94 92 95 97 96 96 96 97 94 86 86 86 82 84
95 100 96 97 97 87 55 55 30 49 42 28 27 27 27 32 38 29 41 48 56 65 76 78 82 86 84 84 85 86 85 86 88 87 87 89 89 86 84 85 84 83 85 89
80 92 97 99 98 96 59 59 55 60 60 60 59 50 34 29 33 43 50 57 61 69 75 75 80 81 80 78 77 80 81 80 80 83 86 87 87 86 86 83 85 86 88 84
78 67 81 72 76 54 63 57 61 64 61 63 65 59 63 46 42 50 54 59 60 66 70 68 74 73 71 72 72 75 80 78 80 82 88 89 86 85 84 82 89 80 76 77
47 53 69 76 54 55 47 52 57 60 54 52 50 54 53 61 50 49 56 59 62 63 67 65 68 71 71 67 69 74 79 78 80 88 91 88 85 86 82 83 81 69 76 85
40 57 57 62 52 47 44 45 46 40 48 48 44 46 52 52 59 49 57 61 61 61 64 64 69 73 76 74 79 80 79 77 85 86 83 79 76 70 67 70 71 69 71 70
62 70 76 62 54 52 49 34 39 43 37 40 44 45 46 49 59 55 58 57 57 67 68 72 76 78 80 80 81 80 80 77 77 72 68 66 66 62 58 52 46 47 55 58

GFSCGP_925_rhum_063.txt.gz
RH
30 36 39 32 33 30 28 32 35 31 25 37 47 40 48 69 79 75 96 99 98 96 91 93 87 96 100 100 100 100 100 96 86 85 84 84 75 77 65 70 61 66 68 67
32 37 29 28 32 32 34 36 35 30 26 35 36 41 46 71 67 63 84 94 94 93 98 96 93 94 100 99 100 100 100 98 90 86 86 83 84 68 54 52 56 45 63 66
40 32 26 29 33 34 35 36 34 32 27 27 42 45 46 50 56 68 70 77 80 88 95 96 97 100 97 100 100 99 98 93 89 85 82 77 71 63 56 49 48 44 49 58
37 28 29 31 31 33 38 30 30 31 34 39 33 50 33 51 60 60 62 69 75 81 84 89 93 99 98 95 98 100 98 90 86 83 79 79 75 73 66 59 43 48 57 60
44 37 33 33 32 30 33 29 33 35 35 32 32 40 33 56 61 56 56 60 66 74 81 88 88 91 97 96 98 100 100 95 90 84 78 73 73 71 65 62 65 60 58 57
35 28 31 31 27 28 27 30 33 38 42 53 39 38 42 60 46 46 42 58 61 70 77 78 78 83 90 92 94 96 97 93 89 85 80 75 75 73 70 63 59 56 53 51
34 36 27 24 30 29 32 35 56 57 56 54 38 44 33 30 42 35 39 46 56 61 72 77 79 79 83 88 91 94 96 93 88 89 84 79 77 73 70 66 62 62 57 49
40 46 30 30 32 33 38 38 63 58 63 54 45 57 39 32 28 30 32 38 47 55 65 72 74 73 76 80 84 88 87 89 87 86 84 79 77 76 73 70 66 63 62 54
44 39 26 23 25 28 38 44 33 44 55 72 59 49 34 28 27 29 30 46 50 50 62 65 68 69 70 71 75 80 78 79 81 83 80 79 77 77 76 76 79 72 61 57
37 46 32 26 26 28 29 32 44 57 58 66 54 54 45 34 29 30 28 41 49 46 54 60 62 64 66 65 67 72 76 69 70 77 74 74 75 76 80 79 80 81 76 76
34 38 37 31 35 34 36 40 41 43 58 52 56 57 42 35 32 36 33 29 45 45 45 54 59 59 62 63 64 67 73 74 69 68 73 69 69 70 75 81 83 84 86 86
50 48 50 37 27 25 28 35 38 53 56 67 64 45 33 35 32 32 25 25 28 35 41 42 54 57 60 62 63 66 68 71 75 77 75 75 69 69 70 77 77 84 89 90
61 75 68 49 38 32 33 31 31 44 55 53 65 52 36 36 32 32 28 21 23 32 39 42 50 57 58 61 62 63 66 71 73 82 84 85 87 89 82 97 76 99 94 94
68 76 78 84 55 40 38 32 29 39 54 47 46 42 38 34 33 30 30 29 28 26 37 46 47 54 55 56 60 61 64 67 76 84 88 88 82 87 86 90 90 100 100 97
79 88 91 85 69 54 46 35 32 33 38 47 40 45 35 38 36 32 32 32 26 25 38 45 52 52 52 55 56 58 59 67 72 84 87 89 86 91 95 98 99 100 100 100
79 84 91 82 64 62 54 36 31 37 36 41 37 42 35 34 33 36 34 33 30 26 27 41 50 56 65 67 65 58 60 65 74 85 85 84 84 93 99 100 100 100 100 100
88 90 92 74 77 66 67 50 38 30 28 38 46 39 32 36 37 35 33 32 30 28 28 31 51 52 59 73 65 74 69 71 77 78 85 87 99 100 100 100 99 100 100 100
91 91 96 98 80 89 63 43 40 34 30 34 36 34 32 33 32 30 32 32 31 28 28 28 37 57 59 77 83 86 96 95 91 93 98 100 100 100 100 100 100 100 100 100
78 91 98 93 86 67 50 46 44 44 39 31 32 30 27 23 23 25 25 28 33 32 29 30 34 51 75 88 92 100 100 100 100 100 100 100 99 100 100 100 100 100 100 100
89 81 88 100 94 85 40 40 29 44 59 36 33 29 27 26 38 35 27 31 35 34 43 63 69 78 88 96 95 100 100 100 100 100 100 100 100 100 100 100 99 100 100 100
98 99 97 98 96 86 60 72 66 89 67 63 64 58 36 34 31 30 30 37 49 63 79 83 90 92 96 97 96 100 100 100 100 100 99 99 100 100 99 100 100 100 100 97
95 98 99 97 99 90 67 65 91 78 69 66 63 60 68 61 50 42 41 46 61 73 90 90 94 97 97 96 94 97 97 98 98 99 100 100 99 99 100 99 99 94 95 100
76 63 83 81 75 57 62 66 71 74 81 59 70 56 56 58 58 53 56 64 67 74 89 89 90 92 90 90 89 92 92 91 94 97 100 100 100 99 95 92 95 97 98 100
51 56 70 70 54 52 46 55 56 69 67 65 62 61 48 52 57 57 57 58 67 75 82 81 84 86 86 83 84 88 89 89 92 97 100 100 99 99 97 94 92 93 98 100
52 50 48 47 51 47 52 47 46 53 58 54 57 57 51 54 51 55 61 60 66 71 73 76 81 83 88 81 84 86 88 88 96 97 94 91 91 92 92 90 92 90 92 87
92 84 89 85 83 96 65 55 55 53 51 54 52 50 48 49 55 51 60 64 68 76 78 80 83 86 89 90 91 91 90 87 87 88 88 84 82 82 82 81 79 78 82 84

GFSCGP_925_rhum_069.txt.gz
RH
45 38 48 37 30 24 26 30 27 26 24 23 25 27 24 29 59 60 60 64 71 82 74 85 88 92 90 98 99 99 100 100 100 100 100 100 100 100 96 79 80 82 54 45
42 44 37 34 32 30 29 31 30 26 26 26 22 26 22 34 42 45 47 58 67 78 83 84 82 90 94 95 96 100 100 100 100 100 93 93 96 95 92 77 98 95 59 49
28 30 33 36 36 35 34 32 30 27 28 26 30 30 25 23 43 49 55 52 57 69 86 88 80 86 93 93 97 98 100 99 100 100 100 98 94 97 99 87 98 96 66 58
32 22 34 34 34 32 37 29 28 31 31 26 32 37 32 23 25 37 38 53 56 64 72 80 82 80 86 89 96 100 100 99 100 99 96 96 94 92 90 99 94 92 81 60
39 39 37 37 33 30 28 30 32 30 33 34 30 37 32 33 26 22 23 36 47 55 65 75 79 80 82 87 94 96 98 98 98 96 92 94 93 89 93 91 79 75 69 68
33 34 32 27 28 28 27 30 35 42 42 49 38 35 33 28 26 23 21 25 36 52 61 68 76 82 84 86 95 96 95 95 96 95 91 87 85 84 79 76 79 84 77 76
39 34 32 30 33 31 29 35 44 55 58 48 38 39 31 27 23 24 23 22 26 45 59 67 75 80 85 89 97 91 89 91 99 96 92 89 85 85 80 71 72 69 66 67
44 43 36 33 34 36 38 35 45 46 55 44 42 44 30 27 26 27 24 24 29 38 55 62 69 76 83 92 97 91 90 92 99 96 92 90 88 82 79 78 73 71 67 62
49 35 26 31 30 29 42 44 34 46 53 55 41 38 32 29 28 26 25 25 25 30 47 56 63 72 78 86 89 92 92 96 98 96 93 91 88 86 83 81 80 73 62 56
40 45 33 28 28 30 33 34 48 52 51 50 43 46 32 29 22 22 24 25 26 29 44 54 60 69 73 79 84 89 91 97 96 92 94 92 89 87 84 82 80 77 71 65
37 43 41 33 34 36 38 38 42 40 49 45 46 38 38 31 26 27 30 28 31 30 37 51 55 62 68 74 79 86 86 87 92 92 94 91 90 85 80 80 75 69 69 66
61 58 51 36 29 29 30 35 38 50 46 57 54 41 27 34 33 30 30 32 30 26 32 45 52 58 66 70 73 77 80 82 87 93 91 91 91 87 86 82 75 71 68 69
58 72 74 54 42 51 56 50 50 48 47 46 62 44 30 36 36 31 31 30 29 28 28 40 50 55 60 65 68 70 76 78 82 87 91 92 93 93 89 86 86 87 87 86
70 62 86 88 89 78 75 64 58 54 66 49 44 36 30 27 29 26 24 25 26 30 27 32 40 49 55 60 64 67 72 77 81 84 85 86 88 89 86 84 83 83 82 84
68 68 61 58 60 73 63 61 50 44 50 64 49 39 31 29 29 26 26 30 30 29 29 30 35 39 49 57 63 65 68 75 80 81 81 80 82 84 83 82 80 77 80 80
58 77 84 86 69 65 68 56 50 44 48 48 43 44 30 27 28 33 31 30 31 29 28 28 30 35 44 54 59 65 68 74 77 78 80 78 80 84 83 81 78 77 81 83
63 82 86 78 72 65 66 60 47 44 42 46 48 37 32 35 33 32 31 31 33 32 31 31 29 28 37 44 56 62 65 72 77 76 76 80 82 83 86 85 82 84 87 90
63 72 89 84 78 75 34 40 42 47 41 39 37 38 52 49 45 35 28 31 33 32 31 30 30 31 32 36 47 55 63 72 75 76 75 79 84 86 86 90 92 93 96 98
60 70 88 89 81 55 40 31 37 44 39 57 69 62 59 54 50 37 37 37 33 30 29 29 28 31 31 36 42 56 66 66 72 76 78 80 84 87 91 94 100 100 100 100
77 69 81 98 84 81 44 47 59 45 53 57 59 55 61 56 68 54 48 51 54 40 31 30 31 34 39 46 63 66 68 72 69 74 78 84 89 92 99 100 99 99 100 100
89 93 90 94 84 68 52 48 66 60 51 53 52 49 58 57 52 51 55 52 51 56 51 70 69 57 61 80 83 78 83 83 88 98 100 100 99 100 99 99 100 100 100 100
72 91 85 78 88 80 50 57 54 41 47 50 47 45 57 54 58 58 52 51 54 62 75 85 85 98 98 99 92 91 96 100 100 100 100 100 100 100 100 100 100 100 100 100
67 66 73 72 64 55 58 62 50 54 58 54 51 48 50 58 52 53 56 55 56 66 77 88 94 99 100 99 98 99 100 100 100 100 100 100 100 100 100 100 100 100 100 100
61 57 66 60 45 42 36 44 68 71 72 68 63 56 54 58 56 61 62 63 61 70 81 87 90 94 98 100 100 99 100 100 100 100 100 100 100 100 100 100 100 100 100 100
51 56 58 52 47 62 43 73 82 74 72 69 64 66 68 70 67 73 73 78 76 78 85 89 94 97 98 100 100 100 100 100 100 100 100 100 100 100 100 100 100 100 100 96
71 62 67 58 84 91 80 74 80 78 77 70 71 70 68 69 74 79 80 78 73 77 81 83 87 90 92 94 98 100 100 99 99 100 100 100 100 100 100 100 100 100 100 100

GFSCGP_925_rhum_072.txt.gz
RH
31 31 35 26 23 19 17 16 16 12 13 18 16 16 14 13 20 24 29 31 38 43 42 55 65 70 76 81 92 99 100 99 100 99 100 100 99 100 94 82 78 56 71 61
34 37 24 22 23 23 20 19 18 14 16 19 13 13 11 14 16 17 18 28 30 38 44 55 64 67 71 80 87 99 99 100 100 100 100 100 98 100 99 92 70 77 84 67
25 22 22 24 29 27 23 22 20 18 15 16 17 15 12 14 14 18 22 22 26 34 46 54 60 66 66 80 82 83 100 100 100 100 99 100 100 100 100 100 87 76 84 71
24 17 22 28 28 24 26 18 21 20 22 22 19 18 13 17 16 14 15 23 27 30 39 48 55 61 63 69 82 81 92 95 100 100 97 91 90 97 95 100 100 90 91 80
27 25 21 23 24 18 22 16 22 22 23 23 21 19 14 15 20 16 13 13 22 29 35 44 52 55 61 62 78 85 88 83 98 100 96 92 79 87 88 97 86 81 88 89
27 24 25 18 21 22 21 24 24 24 24 36 24 20 17 16 18 15 13 12 13 25 32 38 46 53 57 61 71 85 80 80 87 94 99 99 92 86 90 99 100 100 93 89
30 29 25 24 23 20 22 25 35 41 42 39 20 24 19 18 16 16 16 14 14 21 30 36 43 50 54 61 69 72 70 70 79 84 87 91 88 85 88 95 94 100 100 96
41 44 29 25 26 28 25 25 32 41 40 32 27 30 22 17 16 19 18 16 16 19 28 34 39 47 53 60 67 71 65 64 70 77 78 79 78 84 80 83 79 85 83 84
30 29 24 24 25 24 29 32 23 31 36 43 28 25 21 18 18 16 16 18 16 15 21 32 36 45 51 58 64 70 60 60 66 73 75 75 74 75 74 75 73 74 73 72
31 31 23 22 24 24 26 23 40 36 49 47 29 28 25 22 20 15 15 15 14 17 20 28 34 42 49 56 62 70 62 57 62 70 72 72 73 74 71 70 71 69 68 66
28 39 42 29 28 30 31 35 30 29 33 40 40 29 20 20 19 18 18 17 17 19 20 28 32 38 48 52 60 68 66 60 63 69 69 69 70 71 74 75 73 73 72 71
48 45 41 36 26 24 24 29 30 40 38 34 35 32 19 20 22 25 21 17 19 19 17 22 32 38 45 50 55 60 65 62 63 70 70 70 71 70 72 76 76 75 74 73
45 52 40 30 29 32 29 35 35 34 37 43 55 39 20 20 23 24 24 19 18 16 16 19 30 37 42 46 50 54 62 63 64 68 71 73 75 74 74 75 74 72 73 73
51 46 63 48 46 46 57 46 43 42 46 39 35 30 24 22 20 19 19 19 17 16 16 18 20 30 36 41 46 50 55 62 64 67 71 72 73 75 75 72 72 71 69 68
61 48 43 44 37 39 40 39 36 40 38 45 36 35 29 24 23 22 21 22 22 19 17 17 19 20 27 36 43 48 51 59 63 66 70 71 72 71 72 73 74 71 73 71
48 46 55 44 37 37 42 34 33 32 30 35 36 32 23 24 21 21 21 22 23 22 20 18 19 19 21 26 36 43 48 54 61 64 65 66 70 73 72 72 73 74 74 74
51 54 52 52 49 46 52 40 30 27 24 30 34 24 26 27 27 29 32 32 25 24 22 22 19 20 21 23 29 38 44 50 58 60 61 63 65 67 70 72 72 72 72 73
50 55 60 60 66 63 28 26 29 33 26 24 23 30 34 36 38 35 34 40 41 38 34 27 22 20 20 22 26 33 35 46 55 56 56 59 63 64 66 70 71 71 72 74
48 48 66 63 48 35 29 24 24 25 23 33 31 34 35 35 36 30 34 37 42 40 39 35 29 24 24 25 25 32 38 41 47 52 53 55 59 64 65 68 72 75 78 86
50 48 58 65 59 59 33 36 37 34 33 32 35 33 35 35 46 37 35 38 39 36 38 42 42 42 34 30 32 31 34 37 42 50 51 54 58 64 67 70 79 90 92 95
80 73 78 67 67 46 32 25 42 49 52 35 33 33 34 39 37 38 39 35 35 37 40 56 60 57 60 62 54 48 41 42 43 47 56 58 63 68 77 96 96 99 100 100
79 73 80 69 68 75 34 41 48 50 39 37 38 38 40 37 38 38 42 42 39 41 46 60 68 86 93 92 72 55 58 89 90 91 97 100 100 98 99 99 100 100 100 100
66 48 51 46 46 40 43 41 34 49 53 49 53 50 49 48 43 40 43 45 48 49 56 65 81 91 98 99 91 86 100 100 100 100 100 100 100 100 100 100 100 99 100 100
36 30 48 42 33 31 28 34 51 53 56 54 51 52 55 61 54 52 54 55 53 55 63 78 85 91 96 99 100 100 100 100 100 100 100 100 100 100 100 100 100 100 100 100
31 33 39 38 33 30 30 42 56 60 56 57 53 54 55 57 57 59 61 64 65 68 74 78 85 90 94 99 100 100 100 100 100 100 100 100 100 100 100 100 100 100 100 99
33 34 44 42 53 61 54 52 62 64 63 60 61 59 55 58 59 61 68 73 72 77 86 86 92 93 94 97 99 99 99 100 100 100 100 100 100 100 100 100 100 100 99 100

GFSCGP_925_rhum_075.txt.gz
RH
12 21 20 17 17 17 18 17 16 13 10 12 14 12 10 10 10 14 15 18 23 28 27 34 44 46 50 57 70 84 98 99 100 100 100 100 100 97 93 87 82 70 62 61
23 28 18 17 17 20 20 20 18 14 11 15 13 12 9 9 10 10 12 15 18 23 28 33 45 50 54 57 70 90 100 99 100 100 100 99 98 97 99 91 84 62 72 65
42 22 20 20 21 23 23 24 22 19 14 13 16 16 12 10 9 10 10 12 13 19 27 33 42 50 56 56 68 74 96 99 99 98 99 98 100 98 96 100 96 68 62 63
56 32 19 25 25 22 29 19 19 19 19 22 14 20 13 10 9 10 12 13 14 16 21 30 39 45 52 54 61 75 88 99 100 98 100 99 97 98 93 98 100 89 67 66
54 41 29 24 24 20 25 19 19 18 22 23 20 20 16 12 11 11 12 11 12 15 20 28 36 41 47 52 59 61 84 88 99 100 99 99 98 94 99 99 92 90 83 80
31 27 29 22 18 20 19 19 20 19 23 31 23 23 20 14 14 14 11 10 10 13 19 24 32 38 43 48 57 62 80 80 85 93 88 90 85 89 98 100 100 93 92 84
35 38 24 21 24 17 19 24 36 38 36 37 20 23 21 14 13 13 13 12 10 12 18 23 31 36 40 47 55 61 65 67 82 89 88 87 78 77 86 92 99 100 89 93
28 42 32 22 26 26 24 25 33 46 45 33 20 25 18 13 12 12 12 12 11 14 18 21 26 34 39 46 52 59 57 57 64 84 86 87 83 80 75 78 77 84 92 93
28 34 23 24 23 26 33 30 20 29 35 42 30 22 17 16 15 14 14 14 13 13 14 20 23 30 37 44 50 56 50 50 54 67 76 80 81 79 81 78 82 81 76 78
27 31 20 28 25 23 27 26 33 30 52 52 33 25 29 20 18 15 14 14 13 12 14 16 22 27 34 41 48 55 52 46 48 57 64 67 70 74 77 77 79 80 81 81
23 33 34 26 41 32 29 31 32 29 31 45 48 34 18 18 17 17 17 16 15 16 16 18 22 25 32 38 45 54 57 47 47 51 58 61 64 65 69 76 75 77 77 79
24 44 41 34 21 25 24 25 31 43 43 35 36 35 17 18 21 20 21 19 15 16 14 15 20 23 29 36 42 49 54 51 46 51 58 62 63 63 66 69 72 74 72 72
38 38 46 48 35 25 28 26 26 29 32 51 87 40 18 19 18 18 18 17 17 17 15 14 18 24 28 34 39 44 52 53 50 50 57 63 65 66 66 69 70 69 73 71
43 49 41 38 43 34 31 30 33 32 43 38 36 31 24 23 20 18 17 18 19 19 16 15 14 17 25 32 37 41 46 52 53 52 56 60 65 66 66 67 69 69 70 71
42 75 54 45 46 36 37 35 32 33 32 40 38 33 25 22 21 19 18 19 18 18 18 17 16 15 16 26 33 38 40 46 52 53 56 60 64 66 65 65 66 67 69 69
34 40 38 54 34 34 38 34 32 29 28 28 26 27 19 18 19 17 17 21 24 25 22 20 18 18 16 16 26 32 38 42 49 54 56 58 61 64 65 66 67 67 68 68
45 42 36 49 29 37 49 34 30 29 28 27 33 30 21 23 20 24 25 27 33 32 31 30 30 25 21 18 20 21 30 38 45 51 54 55 58 62 64 66 66 68 69 69
47 44 42 51 52 59 26 20 21 24 23 21 20 21 24 25 24 23 22 32 35 35 34 32 32 31 26 24 22 21 23 29 41 47 50 52 55 58 61 64 64 66 68 71
39 44 56 62 47 31 23 19 20 23 21 22 23 25 26 25 27 24 28 30 32 32 32 32 35 44 44 34 27 25 24 25 31 43 48 50 51 54 56 60 64 66 69 71
39 42 52 53 57 48 24 27 28 23 31 27 27 29 29 28 35 27 28 29 31 27 31 36 45 50 56 59 57 46 33 28 30 35 44 47 48 50 53 56 62 68 70 72
64 72 69 62 57 36 23 23 27 42 47 34 31 31 34 38 33 30 26 29 30 31 33 46 54 72 81 86 82 65 49 39 34 33 37 44 47 50 54 57 61 70 87 94
64 76 76 65 82 63 23 26 40 48 41 38 37 37 41 38 34 31 29 30 34 36 39 52 66 80 89 95 95 84 74 84 78 74 62 55 57 61 59 70 95 100 100 100
61 47 50 41 40 31 32 38 40 42 43 42 42 40 42 44 43 42 36 39 44 41 46 55 69 83 88 94 97 97 99 100 100 94 99 99 100 100 100 100 100 100 100 100
34 50 63 75 41 58 34 25 36 42 46 44 43 44 45 50 47 46 47 48 49 48 54 62 72 84 89 93 98 100 100 100 99 100 100 100 100 100 99 99 100 100 100 100
31 31 32 31 27 24 24 37 44 48 45 46 47 48 50 51 50 50 50 54 55 57 66 74 78 86 88 93 99 100 100 99 100 100 100 100 100 100 100 100 100 99 100 98
29 32 40 41 58 54 44 48 53 53 56 55 54 52 50 52 58 55 58 63 64 67 75 78 84 88 96 94 99 100 100 100 94 98 100 100 100 100 100 99 100 100 100 98